ECMWFNIL_sfc_thetae_078.txt.gz
Theta_e
290 290 289 289 288 289 288 287 287 286 286 286 285 284 284 284 284 285 285 285 285 285 285 285 285 285 286 285 286 286 285 285 285 285 285 285 285 285 285 285 285 285
289 289 288 288 287 287 287 287 286 285 284 284 284 284 284 284 284 285 285 285 285 285 285 285 285 284 284 284 284 284 284 284 284 285 284 284 284 284 284 284 285 285
288 288 288 287 286 285 285 285 284 284 284 284 284 284 284 284 284 284 284 284 284 284 283 284 283 283 283 283 283 284 283 283 283 284 283 284 284 283 284 284 284 284
287 287 287 286 286 285 286 285 285 285 285 284 283 284 284 284 284 283 283 283 283 282 282 282 282 282 282 282 282 282 282 282 283 282 282 283 283 283 283 283 283 283
286 286 286 286 286 286 286 285 284 284 283 283 283 283 282 282 282 281 281 281 282 281 281 281 281 281 280 280 281 281 281 281 281 281 281 281 282 282 282 282 282 282
285 285 285 285 285 285 284 283 282 283 282 281 281 281 281 281 280 280 280 280 280 280 279 279 279 279 279 279 279 279 279 279 279 279 279 279 280 281 281 281 280 280
284 284 283 284 284 283 282 281 281 281 280 280 280 279 279 279 279 279 279 279 278 278 278 278 278 277 278 278 278 277 278 278 278 278 277 278 279 278 279 279 279 279
282 283 283 283 282 282 281 281 280 280 280 279 279 279 279 278 278 278 278 277 277 277 277 277 276 276 277 276 276 276 276 277 277 276 276 277 277 277 278 278 278 278
281 281 281 281 281 280 279 279 279 279 278 278 278 278 278 277 277 277 276 276 276 276 276 275 275 275 275 275 275 275 275 275 276 276 276 276 276 276 277 277 277 277
281 280 280 280 279 279 278 278 278 277 277 276 276 277 276 276 275 275 275 275 275 274 274 274 274 274 274 275 274 274 274 274 275 275 275 276 275 276 276 276 276 275
280 280 279 279 278 278 277 276 276 276 276 275 275 275 275 275 275 275 274 274 273 273 273 273 273 273 273 273 274 274 274 274 275 275 275 275 275 275 275 275 275 275
278 277 277 277 276 276 275 275 275 274 274 275 274 274 274 274 273 273 273 273 273 272 272 272 273 273 272 273 273 273 274 275 275 275 275 275 275 275 275 275 275 274
277 277 277 276 276 275 275 274 274 274 274 273 273 272 272 272 272 272 273 272 272 272 271 271 272 272 272 272 272 273 274 275 275 275 275 275 275 275 275 275 274 274
277 277 276 276 275 275 274 274 273 273 272 273 272 272 272 271 271 271 272 272 271 271 271 271 271 271 271 272 273 273 274 274 274 274 274 274 274 274 274 274 274 274
277 276 276 275 274 274 273 273 272 272 272 271 271 271 271 271 270 271 270 271 271 270 270 270 270 271 270 271 272 273 274 273 273 273 273 273 273 273 274 274 274 274
276 275 274 274 273 273 272 272 271 271 271 270 270 270 270 270 270 270 270 270 270 270 270 270 270 270 269 271 273 273 273 273 273 273 273 273 272 272 273 273 273 273
275 274 274 273 273 272 271 271 270 270 270 269 269 269 269 269 269 269 269 269 269 269 269 269 269 269 269 272 273 274 273 273 272 272 273 272 272 272 272 272 273 273
274 273 273 272 271 271 270 269 269 269 269 268 268 268 268 268 268 268 268 268 268 268 268 268 268 269 270 271 273 273 274 273 273 272 272 272 272 272 272 272 271 271
273 272 272 271 270 269 269 268 268 268 267 267 267 267 267 268 268 267 267 267 267 267 267 268 268 268 269 271 272 273 274 273 272 272 271 271 272 271 271 271 270 270
272 271 271 270 269 268 268 267 267 267 267 267 267 267 267 266 266 266 266 266 266 266 266 267 267 267 269 271 272 273 273 273 272 272 272 271 271 271 270 270 270 269
271 271 270 269 268 267 267 267 266 266 266 267 267 266 266 266 265 265 265 264 265 265 265 265 265 267 269 270 271 272 273 273 272 271 270 270 270 270 270 270 270 270
271 270 269 268 268 267 266 267 266 266 265 266 265 266 266 265 265 265 264 263 264 263 263 264 265 267 268 269 271 272 273 271 270 269 269 269 270 270 270 270 270 270
270 269 268 268 267 266 266 266 266 265 265 265 264 265 265 264 263 263 263 263 262 262 262 263 263 265 267 269 270 271 271 269 269 269 269 268 269 269 270 270 271 271
270 269 268 267 266 265 265 266 265 265 264 264 264 264 263 263 263 263 263 263 262 262 262 261 262 264 267 269 270 271 271 269 269 268 268 268 268 269 270 270 271 272
269 268 267 266 265 265 264 264 264 264 264 263 263 263 262 263 262 262 262 262 262 261 262 262 262 263 266 268 269 270 270 269 269 268 268 268 268 268 270 270 271 272
267 266 266 265 265 264 263 263 263 263 262 263 262 263 263 262 262 262 260 261 262 261 261 262 262 262 263 267 269 270 271 270 270 268 268 268 268 268 268 270 271 271

ECMWFNIL_sfc_thetae_081.txt.gz
Theta_e
292 292 291 290 290 290 289 288 288 288 287 286 286 285 285 285 286 286 286 286 286 285 286 286 286 285 286 286 286 286 286 286 285 286 285 286 285 285 285 285 285 285
291 290 290 289 289 289 288 288 287 286 286 286 286 285 285 285 286 286 286 286 286 285 285 285 285 284 284 284 285 285 284 285 284 286 284 285 284 284 284 284 284 285
290 289 289 288 287 287 286 287 287 286 285 285 285 285 285 285 285 285 285 285 285 284 284 284 284 283 283 283 283 284 283 283 282 283 283 283 283 283 283 283 283 284
289 288 287 287 286 286 286 286 286 286 286 285 284 285 285 285 284 284 284 283 283 283 283 283 282 282 282 282 282 282 282 282 282 282 281 282 282 282 282 282 282 282
288 287 288 287 287 287 287 286 285 285 284 284 284 284 283 283 283 282 282 282 282 281 281 281 281 281 280 280 281 280 281 281 281 280 280 280 281 281 281 281 281 280
288 288 287 287 287 286 285 285 284 284 283 283 283 283 282 282 281 281 281 281 280 280 280 280 280 279 279 279 279 279 279 279 279 279 279 279 279 280 281 280 280 279
286 286 286 286 285 285 283 283 283 283 282 282 282 281 281 281 280 280 280 280 279 279 279 278 278 278 278 278 278 278 278 278 278 278 278 278 278 278 279 279 279 278
285 285 285 284 284 283 283 282 282 281 281 281 280 280 280 279 279 279 279 278 278 278 278 278 277 277 277 277 277 277 277 278 278 277 277 277 278 277 278 279 278 277
284 284 284 283 282 282 281 281 281 280 280 280 280 279 279 279 278 278 278 277 277 277 277 277 276 276 276 276 276 276 275 276 277 276 276 276 276 277 277 277 277 277
283 283 282 282 281 281 280 280 280 279 279 279 279 278 277 278 277 276 276 276 276 276 276 276 275 275 275 276 276 275 275 275 276 276 276 276 276 276 276 276 276 276
281 282 281 281 280 280 279 278 278 278 278 277 277 277 277 276 276 276 275 276 276 275 275 275 275 275 275 274 275 275 274 275 275 276 276 276 276 276 276 276 275 275
281 280 279 279 278 277 277 277 277 277 276 277 276 276 276 276 275 275 275 274 275 274 274 274 274 274 274 274 274 274 275 275 276 276 276 276 276 276 276 275 275 275
279 279 278 278 277 277 277 277 276 276 276 276 276 275 275 275 275 274 275 274 274 274 273 273 273 273 273 273 273 274 275 275 275 275 275 275 275 275 275 275 275 275
278 279 278 278 277 277 276 276 276 275 275 275 275 274 274 274 274 273 274 274 273 273 273 273 273 273 273 273 273 274 274 274 274 275 274 274 275 275 275 275 275 275
279 278 278 277 277 276 276 275 275 275 274 274 274 274 274 273 273 273 273 273 273 273 272 273 272 272 272 272 273 274 274 274 274 274 274 274 274 274 274 274 274 274
278 278 277 276 276 275 275 275 274 274 274 273 273 273 273 273 272 272 272 272 272 272 272 272 272 272 271 272 274 274 274 274 274 274 274 273 273 273 273 274 274 274
277 277 276 276 275 275 274 274 274 273 273 273 272 272 272 271 272 272 272 272 271 271 271 272 272 272 272 273 274 275 274 273 273 273 273 273 273 272 272 272 273 273
277 276 276 275 275 274 274 273 273 272 272 272 271 271 271 271 271 271 271 271 271 271 271 271 271 272 272 273 274 275 275 274 273 273 272 272 273 272 272 272 272 272
277 276 276 275 274 273 273 272 271 271 271 270 270 271 271 270 271 270 270 270 270 269 269 270 270 272 272 273 274 274 275 274 273 273 272 272 272 272 272 272 271 271
276 276 275 274 273 272 271 270 270 270 271 271 270 270 270 270 269 268 269 269 268 268 268 269 269 271 271 272 273 274 274 274 273 272 272 272 271 271 271 271 270 270
276 275 274 273 272 271 270 270 270 270 269 270 270 270 269 269 268 268 268 267 267 267 267 267 268 270 271 272 273 273 274 274 272 272 271 271 271 271 271 270 270 270
275 274 273 272 271 270 270 270 269 269 269 270 269 269 269 268 268 268 266 266 266 266 265 266 267 270 271 271 272 273 274 272 271 270 270 270 270 270 270 271 271 271
274 274 273 272 271 270 269 270 269 269 269 269 267 269 268 268 267 266 266 266 265 264 264 265 266 268 269 271 272 272 272 270 270 269 269 269 270 270 270 271 271 271
274 274 272 271 270 269 269 269 269 269 268 268 267 267 267 266 266 265 265 265 264 264 264 263 264 266 269 270 271 272 272 270 269 269 269 269 269 270 270 271 271 272
274 273 272 271 270 269 269 269 268 268 268 266 266 267 266 266 265 265 265 265 264 264 265 264 263 265 268 269 270 271 271 270 270 269 268 269 269 269 270 270 271 272
273 272 271 270 269 268 267 267 267 266 265 266 265 266 265 266 265 264 263 263 264 263 263 263 263 264 265 268 270 271 272 270 270 269 268 269 269 269 269 270 271 271

ECMWFNIL_sfc_thetae_084.txt.gz
Theta_e
287 287 286 286 286 286 285 284 283 283 282 282 281 281 281 282 282 282 282 282 282 282 282 281 281 281 282 281 281 281 281 281 281 281 280 280 279 279 281 279 279 279
286 286 286 285 285 285 284 283 283 282 282 281 282 281 282 282 282 281 282 281 281 281 281 281 280 280 279 279 279 279 279 279 278 281 279 278 278 278 278 278 278 278
285 285 285 284 283 283 283 283 282 282 281 281 282 282 283 282 281 281 280 280 280 280 280 279 278 278 278 277 277 277 277 277 277 277 277 277 277 277 277 277 277 277
284 284 283 283 283 282 282 282 282 282 281 281 281 282 282 282 280 280 279 280 278 278 277 277 277 277 276 276 276 277 276 276 276 276 276 276 277 277 276 277 277 276
283 283 283 283 283 283 283 282 281 281 281 281 282 282 281 280 278 278 277 277 277 276 277 276 276 276 276 275 275 275 275 276 275 275 275 274 275 276 277 276 275 275
284 283 283 283 282 282 282 281 281 281 281 281 281 280 279 278 277 276 276 276 276 276 275 275 275 275 275 274 274 274 274 275 274 274 274 274 274 275 277 276 275 275
283 283 282 282 281 281 280 280 280 281 280 280 280 279 278 277 276 276 276 275 275 275 274 274 274 274 274 274 274 273 273 274 274 274 273 274 274 274 274 275 275 274
282 281 281 280 279 279 279 278 278 279 279 279 278 277 276 276 276 275 275 275 274 274 274 274 274 274 273 273 273 273 272 276 275 273 273 273 273 273 273 276 274 273
280 280 280 279 279 278 278 278 277 277 278 277 276 276 275 275 275 274 274 274 274 273 273 273 273 273 273 272 273 272 272 272 273 272 273 272 273 273 273 273 273 273
280 280 279 278 278 278 278 278 277 277 277 276 276 275 274 274 274 274 274 273 273 272 272 272 272 272 272 272 272 272 271 272 272 272 272 273 273 273 273 273 272 272
280 280 279 278 278 278 278 277 277 277 277 276 275 274 273 273 273 273 272 273 273 272 272 271 271 271 271 271 271 271 271 271 272 272 272 272 273 273 275 272 272 272
280 279 278 278 278 277 276 276 276 276 276 276 276 274 273 273 272 273 272 271 271 271 270 271 270 271 271 271 271 271 271 272 272 272 272 272 272 272 272 272 272 272
279 278 278 277 276 276 276 276 275 275 275 275 275 274 272 271 272 272 272 271 271 270 271 270 271 271 271 270 270 271 272 272 272 272 272 272 272 272 272 272 272 272
278 278 277 276 276 276 275 275 275 275 274 273 272 272 272 272 272 272 271 271 270 270 270 270 270 270 270 270 271 271 271 272 272 272 272 272 272 272 272 272 272 272
277 277 277 276 276 275 275 274 274 274 273 272 272 272 272 271 271 271 270 270 270 270 270 270 270 270 270 270 270 272 273 272 272 272 271 271 271 272 272 272 272 272
277 277 276 276 275 275 274 274 274 273 272 272 271 271 271 271 270 270 270 270 270 269 269 270 270 270 272 274 275 274 273 273 273 273 272 271 271 271 270 271 271 271
276 276 276 275 275 275 274 274 273 273 272 271 271 271 270 270 269 269 269 269 269 269 269 270 270 270 273 274 275 276 275 273 273 272 273 272 272 271 270 270 270 271
276 276 275 275 275 275 274 273 272 272 271 270 270 269 269 268 268 268 269 269 269 268 268 269 269 273 274 275 275 275 275 274 273 272 272 272 272 271 271 270 270 270
276 275 275 275 275 274 274 272 271 271 270 270 269 268 267 267 269 268 267 267 267 267 267 268 268 272 274 274 274 275 276 275 273 272 272 272 272 271 271 270 269 269
276 276 275 275 274 273 272 271 270 270 270 268 268 268 267 267 266 266 267 266 266 266 266 267 267 271 273 274 274 275 275 275 273 272 272 271 271 270 269 268 268 268
276 276 275 274 273 272 271 270 270 269 269 268 267 268 267 267 266 264 264 264 265 264 264 264 266 271 273 274 274 274 275 275 273 271 270 270 270 270 269 269 268 269
276 276 275 274 273 271 270 270 269 269 268 268 267 267 265 265 265 264 264 263 263 262 263 263 264 271 272 273 274 274 274 272 271 270 269 269 270 270 270 270 270 269
276 276 275 273 272 271 270 269 269 267 267 267 266 267 266 265 264 263 262 263 262 261 261 262 263 267 271 272 273 273 273 270 270 269 269 269 269 270 270 270 270 270
277 276 275 273 271 270 269 269 268 267 267 266 266 266 265 264 263 262 262 262 261 261 261 260 260 265 270 271 272 273 272 270 270 269 268 269 269 270 270 270 271 272
277 276 275 273 271 270 269 268 267 267 266 265 265 264 264 263 263 262 261 261 261 260 265 262 260 264 268 270 272 272 272 270 269 269 268 268 269 269 270 270 271 272
276 275 273 272 271 269 268 268 267 265 265 265 264 263 263 262 262 262 261 260 260 260 260 261 261 260 263 269 271 272 273 271 270 268 268 268 269 269 269 270 271 271

ECMWFNIL_sfc_thetae_087.txt.gz
Theta_e
286 285 285 284 283 283 282 282 281 280 280 280 280 280 281 281 281 280 280 280 280 279 279 278 278 278 279 278 278 279 278 277 278 278 277 278 278 277 278 277 277 277
285 285 285 284 283 283 282 281 281 280 280 280 280 280 280 280 280 280 279 279 279 278 278 278 278 277 277 277 277 278 277 276 276 279 277 276 277 277 276 276 276 276
284 284 283 283 282 281 281 281 280 280 280 280 280 280 280 279 279 279 279 278 278 277 277 277 276 276 276 276 276 277 276 275 275 275 276 275 276 276 275 276 275 276
283 283 282 282 281 281 281 280 280 280 280 280 280 280 280 280 279 278 278 278 277 276 276 276 276 275 275 275 275 276 275 275 275 275 274 275 275 275 275 275 276 275
282 282 281 281 281 281 280 280 280 280 280 280 279 279 279 278 277 277 277 276 276 276 276 275 275 275 275 275 274 275 275 275 274 274 274 273 274 275 276 275 274 274
281 281 281 281 281 280 280 279 279 279 279 278 278 278 277 277 277 276 276 276 275 275 275 274 274 274 274 274 274 274 274 275 274 273 273 273 273 274 276 275 274 273
281 281 281 281 280 279 279 279 279 279 278 278 278 277 277 277 276 276 276 276 276 276 275 274 274 274 274 273 273 273 273 273 273 273 272 272 273 273 273 274 273 273
281 281 280 280 280 280 279 278 278 278 277 277 277 276 276 276 276 277 277 277 276 276 275 275 275 274 273 273 272 272 272 274 273 272 272 272 272 272 273 274 273 273
281 280 279 279 279 279 278 277 277 277 277 276 276 276 276 276 277 277 277 276 275 275 275 274 274 273 272 272 272 271 271 271 272 271 272 272 272 272 273 273 272 272
280 280 279 279 279 279 278 278 278 278 278 277 276 276 276 277 277 276 275 275 275 274 274 273 273 272 271 271 271 270 270 271 271 271 272 272 272 272 272 272 272 272
279 280 280 279 279 279 278 278 278 277 277 277 276 275 276 276 276 275 275 275 274 273 273 272 271 271 271 270 270 270 270 271 271 272 272 272 272 272 274 272 272 271
279 279 279 279 279 278 278 278 277 277 276 276 276 275 275 275 275 275 274 273 273 272 271 270 270 270 270 270 270 271 271 271 272 271 272 272 272 272 272 272 271 271
279 279 279 279 278 278 277 277 276 276 276 276 276 275 275 274 274 274 273 272 272 271 271 270 270 270 269 269 270 270 271 271 271 272 272 272 272 272 271 271 271 271
280 279 279 278 277 277 276 276 276 276 276 275 275 275 274 273 273 273 272 272 272 272 271 270 270 269 269 270 270 270 270 271 271 271 271 271 271 271 271 271 271 271
279 278 278 277 277 276 276 276 275 275 274 275 275 274 274 273 273 273 272 272 272 271 271 270 270 269 270 270 270 271 272 271 272 271 270 269 270 270 270 271 270 270
278 277 277 276 276 275 275 275 275 274 274 274 274 273 273 273 273 273 272 271 270 269 269 270 270 270 273 276 275 272 273 272 272 271 270 270 269 269 269 269 270 270
277 276 275 275 276 275 275 274 274 274 274 274 273 273 272 272 272 272 271 271 270 270 269 270 270 271 275 277 277 277 274 272 272 272 272 271 269 269 268 269 269 269
276 275 275 275 275 275 274 274 274 273 273 273 272 272 271 271 271 271 271 270 270 269 269 269 269 274 276 277 277 276 276 274 273 272 272 271 271 270 270 269 269 268
276 275 275 275 275 274 274 273 273 273 272 272 271 271 271 270 271 271 270 269 269 269 268 268 268 274 276 277 276 276 276 275 273 272 271 271 271 271 270 269 268 268
275 275 274 274 275 274 273 272 272 272 272 272 271 271 271 271 270 269 269 268 268 268 267 267 267 272 275 276 276 276 276 275 273 272 272 271 270 270 268 267 267 266
275 274 274 274 274 273 273 272 272 272 272 271 271 271 270 270 269 268 267 267 267 266 266 265 266 272 274 276 276 276 276 276 273 272 270 269 269 268 268 267 267 268
274 274 274 273 273 272 272 272 272 271 271 271 270 270 269 268 267 267 267 267 266 264 264 263 264 272 274 276 276 276 276 273 271 270 269 269 269 269 269 268 268 268
275 274 273 273 272 271 271 271 272 271 271 270 270 270 269 268 267 267 267 266 265 263 262 262 263 269 274 275 275 275 275 271 270 268 268 268 269 269 269 269 269 269
275 275 274 273 272 271 272 272 272 272 271 270 270 269 268 267 266 265 264 263 263 262 263 261 261 266 272 274 275 275 273 270 269 268 268 268 268 269 270 270 270 272
275 275 275 274 273 273 273 272 272 271 271 270 269 269 268 266 264 264 262 261 262 261 265 264 261 264 271 273 274 274 274 271 269 268 267 268 268 268 269 269 270 271
276 275 275 275 274 274 273 273 272 270 269 269 267 267 265 264 263 263 262 261 261 260 261 263 263 262 264 271 273 274 275 270 269 268 267 267 268 268 267 268 268 269

ECMWFNIL_sfc_thetae_090.txt.gz
Theta_e
284 283 282 282 281 282 280 280 279 279 279 279 279 279 279 279 279 279 278 278 278 278 278 278 278 278 279 278 277 277 277 277 277 277 277 277 276 276 277 276 276 276
283 283 283 282 282 282 280 279 279 279 279 279 279 279 279 279 279 279 278 278 278 277 277 277 277 277 277 277 276 276 276 276 276 278 276 276 276 276 276 275 275 275
283 282 282 281 281 280 279 279 279 279 279 279 279 279 280 279 278 277 278 277 277 276 276 276 276 276 276 276 276 276 275 275 275 275 276 275 275 275 275 275 275 275
282 282 282 281 280 279 279 279 279 279 279 279 279 279 279 279 278 277 277 278 276 276 276 276 276 276 276 275 275 275 275 275 275 275 275 275 275 275 275 275 275 274
282 281 280 280 279 279 279 279 279 279 279 279 279 279 279 278 277 277 276 276 276 275 275 275 275 275 275 275 275 275 275 275 274 274 274 274 274 275 275 275 274 273
281 281 280 280 280 279 279 279 279 279 279 278 279 279 277 277 277 276 276 275 275 275 275 275 275 275 274 274 274 274 274 274 274 274 274 274 273 274 275 274 273 272
280 280 279 279 279 279 279 279 279 280 279 278 278 277 277 277 277 277 276 276 275 276 276 276 275 274 274 274 274 273 274 273 273 273 273 273 273 273 273 273 272 272
280 280 280 279 279 279 278 279 280 280 279 278 278 278 278 277 277 277 276 277 277 276 276 275 275 274 274 273 273 273 273 273 272 272 272 272 272 272 272 273 272 272
280 279 279 279 279 278 278 279 279 279 279 279 279 278 278 278 278 277 277 277 276 276 275 275 275 274 274 273 272 272 272 272 272 272 272 272 272 272 272 272 272 271
279 279 279 279 278 278 279 279 279 279 279 279 278 278 277 278 278 277 277 276 275 275 275 274 274 273 273 273 272 271 271 271 271 272 272 272 272 271 271 271 271 271
279 279 279 278 278 278 278 279 279 278 278 278 278 277 277 277 277 277 276 276 275 275 274 273 273 272 272 272 271 271 271 271 272 272 272 272 272 272 274 271 271 271
279 279 279 279 278 278 279 279 278 278 278 278 277 277 277 276 276 276 275 275 275 274 273 273 272 272 271 271 271 271 271 271 272 272 272 271 271 271 271 271 271 271
279 279 279 279 278 278 279 279 278 278 278 277 277 277 276 276 276 275 275 274 274 273 273 272 271 270 270 270 271 271 271 271 271 271 271 270 270 270 271 271 271 271
279 279 279 279 278 278 278 278 278 277 277 277 276 276 275 275 275 274 274 273 273 273 273 272 271 271 271 271 271 270 270 270 271 270 270 270 270 270 270 270 271 271
279 278 278 278 277 277 277 277 277 277 276 276 276 275 275 275 275 274 273 273 272 272 272 272 271 271 271 271 270 270 271 271 271 270 269 269 269 269 269 269 269 269
278 278 278 277 276 276 276 276 276 276 275 275 275 275 274 274 274 274 273 272 272 272 271 271 270 270 273 276 275 271 271 272 272 270 269 269 268 268 268 268 268 268
278 278 277 277 276 276 276 276 275 275 274 275 274 274 273 273 273 273 273 272 272 271 271 271 270 271 276 277 277 277 273 272 271 271 271 270 269 268 268 268 268 268
278 277 276 276 275 275 274 274 274 274 274 274 273 273 273 273 273 272 272 271 271 271 271 270 270 274 277 279 279 279 276 272 272 272 271 271 270 269 268 268 267 267
278 276 275 274 274 274 274 273 273 273 273 273 272 273 272 272 272 272 271 271 271 271 270 270 270 275 278 279 280 279 278 275 272 272 271 271 271 270 269 268 267 267
277 275 274 274 273 273 273 272 272 273 273 273 272 272 272 272 272 271 272 271 271 271 270 270 269 274 278 279 280 279 279 277 273 272 271 271 271 270 268 267 266 266
276 275 274 273 273 273 272 272 272 272 272 272 272 272 272 271 271 271 270 271 270 270 269 269 268 274 278 279 280 279 278 278 273 272 272 271 270 268 267 267 267 267
275 275 274 273 273 272 271 272 271 271 271 272 272 272 272 272 271 271 271 270 270 269 268 268 267 275 277 278 279 279 279 276 273 272 270 269 268 267 267 268 268 267
276 275 274 273 272 272 271 271 271 270 271 271 270 272 272 271 271 271 271 270 269 268 268 268 267 272 277 278 279 279 278 273 271 269 267 266 267 267 267 268 268 268
276 275 274 273 272 272 271 272 272 272 272 272 272 271 271 271 270 270 269 269 269 268 268 267 266 269 275 277 278 279 277 271 270 268 267 267 266 268 268 268 268 271
276 275 275 274 273 273 272 272 272 273 273 272 272 272 271 270 269 269 268 268 268 268 269 267 265 267 274 277 278 279 277 271 269 267 267 267 266 266 268 268 268 270
275 275 275 274 273 273 273 273 273 272 272 271 271 271 270 269 268 268 268 267 266 266 266 266 264 263 266 276 277 278 278 271 269 267 266 266 266 266 265 265 267 267

ECMWFNIL_sfc_thetae_093.txt.gz
Theta_e
282 281 281 281 280 280 280 279 279 279 279 278 279 278 279 278 279 278 278 278 278 278 278 278 278 278 278 278 277 277 277 277 277 276 276 276 276 276 276 275 275 275
281 281 282 280 280 281 279 279 279 279 278 278 278 278 279 278 278 278 278 278 278 277 277 277 277 277 277 277 276 277 276 277 277 278 276 275 275 275 275 275 274 275
281 280 280 280 280 279 279 278 278 278 278 278 278 279 279 278 278 277 277 277 277 277 277 277 277 276 276 276 276 276 276 276 275 275 276 275 275 275 274 274 274 274
280 281 280 280 279 279 278 278 278 278 278 278 278 279 279 279 278 277 277 277 276 276 276 276 276 276 276 276 276 275 275 275 275 276 276 276 275 275 274 274 274 274
281 280 279 279 278 278 278 278 278 278 278 278 278 278 278 278 277 277 276 276 276 276 276 276 276 276 276 275 275 275 276 276 276 276 275 274 275 275 274 274 273 273
281 280 280 279 279 278 278 278 278 279 278 278 278 278 277 277 276 277 277 277 277 277 277 277 276 276 276 275 275 276 276 275 275 274 274 273 274 274 274 274 273 273
281 280 279 279 278 278 278 278 278 279 278 278 278 277 277 277 278 278 277 276 277 277 277 276 275 275 276 275 275 275 274 274 273 274 273 273 273 273 273 273 272 272
280 280 279 279 278 278 278 278 278 278 278 278 278 277 277 277 278 278 277 277 277 276 276 276 277 276 275 275 275 274 274 274 273 273 273 272 273 272 272 273 272 272
280 279 279 278 278 278 278 278 278 278 278 278 278 277 277 278 278 277 277 276 276 276 276 276 276 275 275 275 275 274 273 273 273 273 272 272 272 272 272 272 271 271
280 279 279 278 278 278 278 278 278 278 278 278 277 277 277 278 278 277 276 275 276 275 275 275 275 274 274 274 274 273 272 272 272 272 272 272 272 271 271 271 271 270
279 279 278 278 278 278 278 278 278 277 277 277 277 277 277 277 278 277 275 275 275 275 275 274 274 274 274 273 272 271 271 271 271 271 271 271 271 271 273 270 270 270
279 279 278 278 278 278 278 278 277 277 277 277 277 278 277 277 277 276 276 275 275 275 275 274 274 274 273 273 272 271 271 271 271 271 271 270 270 270 270 270 270 269
279 279 279 278 278 278 277 277 277 277 277 277 277 277 277 276 276 276 276 275 275 275 274 273 273 273 272 272 272 271 271 271 271 270 270 270 269 270 270 270 269 269
280 279 279 279 278 277 277 277 277 277 277 276 277 277 277 276 276 276 275 275 274 274 274 273 272 272 272 272 272 272 272 272 271 270 270 270 270 269 269 269 269 269
280 279 278 278 277 277 277 277 277 277 277 276 277 277 277 276 276 275 274 274 274 274 273 273 272 272 273 273 272 272 273 273 272 271 270 270 269 269 269 269 268 268
279 279 278 277 277 277 278 277 277 276 276 276 276 276 275 275 275 275 274 274 273 273 272 272 272 272 274 277 276 273 273 273 273 271 270 270 270 269 268 268 268 268
279 278 278 278 278 278 277 277 277 276 276 276 275 275 274 274 274 274 274 274 273 272 272 272 272 272 277 279 278 278 274 273 272 271 271 269 269 269 269 269 268 268
279 279 278 278 277 277 277 276 276 275 275 275 274 274 274 274 274 274 274 273 273 272 272 272 271 274 278 280 280 279 276 273 272 271 271 270 269 269 269 269 268 268
279 278 278 277 277 277 276 275 275 275 274 274 274 274 273 273 273 273 273 273 272 272 271 272 271 276 279 281 281 280 278 275 272 272 271 271 270 269 269 269 268 268
279 278 278 277 276 276 275 274 274 274 274 273 273 272 272 272 272 272 273 272 272 272 272 271 271 275 280 281 282 281 280 276 272 272 272 271 271 270 269 269 268 267
279 278 277 277 276 275 274 274 274 273 273 272 272 272 272 272 272 272 272 272 271 271 271 271 271 276 280 282 282 283 282 279 273 273 271 271 271 270 270 269 268 268
278 278 277 276 275 274 273 273 272 272 272 271 271 270 269 269 270 271 272 272 272 271 271 270 271 277 280 282 283 283 283 279 274 273 271 271 271 270 270 269 268 268
278 278 277 275 274 273 272 272 272 270 270 270 270 271 271 270 270 271 272 271 271 271 270 270 270 275 280 281 283 283 281 277 274 273 272 270 270 269 269 268 268 268
278 277 276 275 273 273 272 273 272 270 270 270 271 270 270 270 271 271 271 271 271 271 271 270 270 273 279 281 282 283 281 276 274 272 271 270 269 269 268 267 268 270
277 276 276 274 273 273 273 272 272 272 272 271 270 271 272 272 271 271 271 271 271 271 272 271 270 272 277 281 282 283 281 276 274 271 270 269 267 266 267 267 267 270
276 275 275 274 274 273 273 273 272 271 271 271 270 271 271 271 270 271 271 270 270 270 270 271 270 270 272 280 282 282 283 276 273 270 269 268 267 266 265 265 266 266

ECMWFNIL_sfc_thetae_096.txt.gz
Theta_e
282 282 282 281 281 281 280 279 279 279 279 278 278 278 278 278 278 278 278 278 278 278 278 278 278 278 279 278 278 278 277 277 277 276 276 277 276 276 276 275 275 275
281 281 282 281 280 281 279 279 279 279 278 278 278 278 278 278 277 278 278 278 278 278 278 278 277 277 277 277 277 277 277 277 276 277 276 276 275 275 275 275 275 275
280 280 280 279 280 279 278 278 278 278 278 277 278 278 278 278 278 277 277 278 277 277 277 277 277 277 277 277 277 277 277 277 276 276 276 275 275 275 274 274 274 274
280 280 280 279 279 279 278 278 278 278 278 278 278 278 279 279 277 277 277 278 277 277 277 276 276 276 276 276 276 276 276 276 276 275 275 275 275 274 274 274 274 274
280 280 279 279 278 278 278 278 278 278 278 278 278 278 278 277 277 277 277 276 276 276 276 276 276 276 276 276 276 275 275 275 275 275 275 274 274 274 274 274 273 273
280 280 280 279 278 278 278 278 278 278 278 278 278 278 277 277 277 276 276 276 276 276 276 275 276 276 276 276 276 276 276 275 275 275 275 274 274 273 274 274 273 273
280 279 279 279 278 278 278 278 278 278 278 278 278 277 277 276 276 276 276 276 276 276 276 275 275 275 275 276 276 275 274 274 274 274 274 273 273 273 273 273 273 273
280 279 279 278 278 278 278 278 278 278 278 277 277 277 277 276 276 276 276 276 276 276 275 275 276 276 275 275 275 274 274 274 274 274 273 273 273 272 272 273 273 272
280 279 279 278 278 278 278 278 278 278 278 277 277 276 276 276 276 276 276 276 275 275 275 275 276 275 276 276 275 274 274 274 275 274 273 272 272 272 272 272 272 271
280 279 278 278 278 278 278 278 278 278 278 277 277 276 276 276 276 276 276 275 275 275 275 275 274 275 275 275 275 275 275 274 274 273 273 273 272 272 272 271 271 270
280 279 278 278 278 278 278 278 278 277 277 277 277 276 276 276 276 275 275 275 275 275 275 275 274 275 275 275 275 275 274 274 274 274 273 272 272 272 273 271 270 270
280 279 279 278 278 278 278 278 278 277 277 277 277 276 276 276 275 275 275 275 275 275 275 275 274 275 275 274 274 274 274 274 273 273 272 271 271 271 271 271 271 271
280 279 279 279 278 278 278 278 278 277 277 277 277 276 276 275 275 275 275 275 275 275 275 275 275 274 274 273 273 273 273 274 273 272 272 271 271 271 271 272 272 271
281 280 280 279 278 278 278 278 278 277 277 277 276 276 276 276 276 275 275 275 274 274 275 275 274 274 273 273 273 273 274 274 273 273 272 271 271 271 272 272 271 270
280 280 279 279 278 277 277 277 277 277 277 276 276 276 277 276 276 276 274 274 274 275 274 274 274 273 273 274 274 274 274 274 273 273 273 272 271 272 272 272 271 270
280 279 278 278 278 277 277 277 277 276 276 276 276 277 276 276 275 275 275 275 274 274 274 274 273 273 275 277 277 275 274 274 273 273 272 272 272 272 272 271 270 269
279 279 279 278 279 278 277 277 277 276 276 276 276 276 275 275 275 275 275 275 274 274 273 273 273 273 277 280 280 279 275 274 273 272 272 272 273 272 271 271 270 270
280 280 279 279 279 278 278 277 276 276 276 276 275 275 274 274 274 275 275 275 274 274 273 273 273 276 279 280 281 281 278 274 274 273 273 273 273 272 272 271 270 269
280 280 279 279 278 278 277 276 276 276 276 275 275 274 274 274 275 275 274 274 274 273 273 273 273 277 280 281 282 282 281 277 273 273 272 272 273 272 272 271 270 270
280 279 279 278 277 277 276 276 276 276 276 275 274 274 274 274 274 274 274 273 273 273 272 272 272 276 280 282 282 282 282 279 272 273 273 273 273 273 272 271 271 270
279 279 278 277 276 276 276 276 276 275 275 275 274 274 274 274 274 274 274 272 271 271 270 270 271 277 280 282 283 283 283 281 272 273 272 272 273 273 272 271 271 270
278 278 278 277 277 276 275 276 275 275 275 274 273 273 272 271 270 269 270 270 270 270 270 270 270 278 280 282 283 283 284 279 272 272 272 272 272 272 271 271 272 271
279 278 277 277 276 275 275 275 275 274 274 273 272 272 272 271 270 270 270 270 270 269 270 270 270 276 280 281 283 284 283 279 274 273 273 272 272 271 271 271 271 271
279 279 278 277 276 276 275 276 275 274 273 272 273 271 271 270 270 269 269 269 270 269 270 270 270 273 279 281 282 284 283 279 276 274 274 273 272 272 272 271 271 272
279 279 278 277 276 276 276 275 275 274 273 271 271 270 270 268 269 269 268 269 269 270 272 271 270 272 278 280 282 283 283 280 277 274 273 273 272 271 272 271 271 271
279 278 278 277 276 276 275 275 274 271 271 271 270 270 269 269 268 269 269 269 269 269 270 271 270 270 273 280 281 283 284 281 278 275 273 273 272 271 270 270 270 269

ECMWFNIL_sfc_thetae_099.txt.gz
Theta_e
287 286 286 285 285 285 284 283 283 283 283 283 283 283 283 282 282 282 282 282 282 282 282 282 283 283 283 282 282 282 282 281 281 282 281 281 281 281 280 280 280 281
285 285 285 285 285 284 283 284 283 283 283 283 283 282 282 282 282 282 282 282 282 282 282 282 282 282 282 282 282 282 281 281 280 281 281 280 280 280 280 280 279 279
285 284 284 284 283 283 283 283 283 283 282 282 282 282 282 282 281 282 282 282 281 281 281 281 281 281 281 281 282 281 281 281 280 280 280 280 280 280 279 279 279 279
284 284 284 283 283 282 282 282 282 282 282 281 282 282 282 281 281 281 281 281 281 281 281 281 281 281 281 280 281 281 280 280 280 279 279 279 279 279 279 279 278 278
283 283 283 283 283 282 282 282 281 281 281 282 281 281 281 281 281 281 280 280 281 280 280 280 280 280 280 280 280 279 279 279 279 279 279 278 278 278 278 278 277 277
283 283 283 282 282 282 281 282 281 281 281 281 281 281 281 281 280 280 280 280 280 280 279 279 279 279 279 279 279 279 279 278 278 278 278 278 277 278 277 277 277 276
282 282 282 282 281 282 282 281 281 282 281 282 281 281 280 280 280 280 280 280 279 280 279 279 279 278 278 278 278 278 278 278 278 278 277 277 277 276 277 277 277 276
282 282 282 281 281 281 281 281 281 281 281 281 281 280 280 280 280 279 279 279 279 279 279 279 279 278 278 278 278 277 277 277 277 277 277 276 276 276 276 276 276 275
282 281 281 281 281 281 281 280 280 280 280 280 280 279 280 280 279 279 279 279 279 279 279 278 278 278 278 278 278 277 277 277 277 277 277 276 276 276 276 276 275 275
281 281 280 280 280 280 280 280 280 280 280 280 280 279 279 279 279 279 279 279 278 278 278 278 278 277 277 277 277 277 277 277 277 277 276 276 276 276 275 275 275 275
281 280 280 280 280 280 280 280 280 280 280 280 279 279 279 279 278 278 278 278 278 278 277 277 277 277 277 277 277 277 277 277 277 276 276 276 276 276 276 275 275 275
280 280 280 280 280 280 279 279 280 279 279 279 279 279 278 278 278 278 278 278 278 278 278 277 277 277 277 277 277 277 277 277 277 276 276 276 275 275 276 275 275 275
280 280 280 280 280 279 279 279 279 279 279 279 279 279 278 278 278 278 278 278 278 277 277 277 276 277 277 277 277 276 277 276 276 276 276 275 275 275 275 275 275 275
281 281 281 281 280 279 279 279 279 279 279 279 279 278 278 278 277 277 277 277 277 277 277 277 276 276 276 276 276 276 276 276 276 275 275 275 275 275 275 274 275 275
282 281 281 281 280 279 279 279 279 279 279 278 278 278 278 278 278 277 277 277 277 277 276 276 276 276 276 276 276 276 276 276 276 276 276 275 274 274 274 274 274 275
282 282 281 281 280 279 279 279 279 278 278 278 278 278 278 278 277 277 277 276 276 276 276 276 276 276 277 278 278 276 276 277 277 276 276 276 275 274 274 274 274 274
282 281 281 280 280 280 279 279 279 278 278 278 278 278 277 277 277 277 276 276 276 276 276 276 276 276 279 281 281 280 277 276 276 276 276 275 275 274 274 274 274 274
281 281 280 280 280 279 279 279 279 278 278 278 277 277 277 277 276 277 276 276 276 276 276 276 276 278 280 282 283 282 280 276 276 276 275 275 275 275 275 275 274 273
282 281 280 280 280 280 279 278 278 278 278 277 277 277 276 276 277 276 276 276 276 275 275 275 275 279 281 283 283 283 282 278 276 276 275 275 275 275 274 274 274 273
281 281 281 281 281 280 279 278 278 278 278 278 277 276 276 276 276 276 276 276 275 275 275 275 275 278 282 283 284 284 283 280 275 276 275 275 275 274 274 274 273 273
282 281 281 281 280 279 278 278 278 278 277 277 277 277 276 276 276 276 276 275 275 275 275 274 274 279 282 283 284 284 284 283 275 275 275 275 275 274 274 274 274 273
282 281 281 280 279 278 278 278 277 277 277 277 276 277 276 276 276 275 275 275 275 274 274 274 274 279 281 283 284 285 285 282 275 274 274 274 274 274 274 274 274 274
282 281 280 279 279 278 278 278 278 277 277 277 276 276 276 275 275 275 275 275 274 273 273 273 272 277 281 283 284 285 284 280 275 274 274 273 274 274 274 274 274 274
282 281 280 279 279 278 278 279 279 278 277 276 276 275 275 275 275 275 274 273 273 272 272 272 272 274 280 282 283 284 284 280 276 275 274 273 273 274 274 273 273 273
281 281 281 280 279 279 279 278 278 277 277 275 276 276 276 275 273 273 272 272 272 272 273 272 272 273 278 281 283 284 284 281 278 275 274 274 273 273 274 273 273 274
281 281 281 280 279 279 278 278 278 276 275 275 275 275 275 274 273 273 272 271 271 270 271 272 272 272 274 280 282 283 284 282 280 277 275 275 274 274 274 274 274 273

ECMWFNIL_sfc_thetae_102.txt.gz
Theta_e
295 294 295 295 296 296 294 294 293 293 293 292 292 291 291 291 290 290 290 290 291 290 290 290 290 290 291 291 291 291 291 290 290 290 291 290 290 290 289 289 290 288
293 293 294 295 294 294 294 295 294 293 293 292 292 291 291 289 289 290 289 289 289 289 289 290 290 290 290 290 290 290 289 289 288 290 290 289 289 289 289 288 288 287
293 292 293 293 293 292 292 293 293 293 292 292 292 291 290 289 289 289 289 289 289 289 289 289 289 289 290 290 290 290 289 288 287 288 289 288 288 288 287 287 287 287
292 292 292 293 293 292 292 291 291 291 291 290 290 290 289 289 289 289 289 288 289 288 288 289 289 289 289 289 290 289 289 288 288 288 287 287 287 287 286 286 285 285
292 291 291 291 292 291 291 290 290 290 290 290 289 289 288 288 288 288 288 288 288 288 288 288 288 288 288 288 289 288 287 286 286 287 286 285 285 285 284 284 283 283
291 291 291 291 290 290 289 289 289 289 289 288 288 288 288 288 288 287 287 287 287 287 287 287 287 287 287 287 287 287 286 285 285 285 285 284 284 284 283 283 283 282
290 290 289 290 289 289 289 289 289 288 288 288 288 287 287 287 287 287 287 287 287 287 287 286 286 285 286 286 286 285 285 285 284 284 284 284 283 282 282 283 282 282
290 289 289 288 288 288 288 288 288 288 288 288 287 287 287 287 287 287 287 287 287 286 286 286 286 285 285 286 285 284 284 284 283 284 284 283 283 282 282 282 282 281
288 288 288 287 287 287 287 287 287 287 287 287 287 286 286 287 287 286 286 286 286 286 286 285 285 285 285 285 284 284 283 283 283 283 283 282 282 282 282 282 281 281
287 287 287 287 286 287 287 287 287 286 286 286 286 286 285 286 286 286 285 285 285 285 285 285 284 284 284 284 284 284 283 283 283 283 283 283 283 282 282 281 281 281
287 287 286 286 286 286 286 286 286 286 285 285 285 285 285 285 285 285 285 285 284 284 284 284 284 284 284 284 284 284 284 283 283 283 283 283 283 282 282 281 281 281
286 286 285 285 286 286 286 285 285 285 285 285 285 285 284 284 284 284 284 284 284 284 283 283 283 283 283 283 283 283 283 283 283 282 282 282 282 282 281 281 281 281
286 285 285 286 286 286 285 285 285 284 284 284 284 284 284 283 284 284 284 284 284 283 282 282 282 282 283 283 282 282 282 282 282 282 282 282 282 281 280 280 280 281
286 286 286 286 286 285 285 284 284 284 284 284 284 284 283 283 283 283 283 283 283 283 282 282 282 281 282 282 282 282 282 282 282 282 281 281 280 280 280 280 280 280
285 285 285 285 285 284 284 284 284 284 284 284 284 284 284 284 284 283 283 282 282 280 280 280 280 280 281 281 282 282 282 282 282 281 281 279 279 279 279 279 279 280
285 284 284 284 284 283 284 284 284 284 284 283 283 283 283 283 283 283 282 280 279 279 279 279 280 281 282 283 283 282 282 281 281 280 280 280 279 279 279 279 279 279
285 284 284 284 284 283 283 283 283 284 283 283 283 283 282 282 282 281 280 280 279 279 278 279 279 280 282 284 284 283 281 280 280 280 280 280 280 279 279 279 278 279
284 284 284 284 284 283 283 283 283 283 283 282 282 281 281 282 281 281 280 279 279 279 279 279 279 281 283 283 284 284 282 281 281 281 280 280 280 280 279 279 279 279
285 285 284 284 284 284 284 284 283 283 282 282 281 281 281 280 281 280 279 279 279 279 279 279 279 282 283 284 284 285 284 282 281 281 281 280 280 280 280 280 280 279
286 285 285 285 285 284 283 283 282 282 282 282 282 281 280 280 280 279 279 278 278 279 279 279 279 281 283 284 284 284 285 283 281 280 281 281 280 280 280 280 280 279
286 286 285 285 284 284 283 282 282 282 282 281 281 281 281 280 279 279 279 279 279 279 279 279 279 282 283 284 284 285 285 284 280 280 280 281 281 281 280 280 280 280
286 285 285 285 284 283 283 282 282 282 282 282 281 282 281 281 280 279 279 279 279 279 279 279 279 282 282 283 284 285 286 284 282 280 280 280 280 280 280 280 280 279
286 286 285 284 284 283 282 282 282 282 282 282 281 281 280 280 279 279 280 279 279 278 278 278 279 281 282 283 284 285 285 284 283 280 280 279 279 280 279 279 279 279
286 286 285 284 283 282 282 283 282 282 282 281 280 279 279 279 279 279 279 279 279 278 279 278 279 279 281 282 284 285 285 284 284 281 280 279 279 279 279 279 279 278
286 285 285 284 283 283 282 282 282 281 281 281 280 280 279 279 279 279 279 279 279 279 279 279 279 279 281 282 283 284 285 284 284 282 280 279 279 278 278 278 278 278
286 285 285 284 283 283 283 283 283 281 281 280 279 280 279 279 278 279 278 278 278 278 278 278 278 278 279 281 282 284 285 284 284 282 280 280 279 279 278 278 278 278

ECMWFNIL_sfc_thetae_105.txt.gz
Theta_e
300 298 298 299 299 300 299 298 297 297 296 296 295 294 293 293 294 294 295 295 296 296 296 296 296 296 296 296 296 296 295 295 294 294 295 293 293 292 292 292 292 290
299 298 298 299 300 299 299 299 298 297 297 296 296 295 294 293 293 294 294 295 295 295 295 295 295 295 295 295 295 294 292 292 292 294 292 292 291 292 291 290 289 289
298 298 298 298 299 298 299 299 298 298 297 296 296 295 293 293 292 293 293 294 293 293 293 294 293 293 293 293 293 292 291 291 290 291 291 290 290 290 289 289 289 289
298 297 297 298 299 298 298 298 297 297 297 296 294 294 293 293 292 292 292 292 292 292 292 292 292 292 292 292 292 291 291 290 290 290 289 289 289 288 288 288 287 287
298 297 297 297 298 298 297 297 296 296 295 295 294 292 291 291 291 291 290 291 291 291 291 291 291 291 291 291 291 290 289 289 289 289 288 287 288 288 287 287 286 285
297 296 296 296 296 296 295 295 295 295 294 293 292 291 291 291 290 290 289 290 290 290 290 290 290 290 290 290 290 289 288 288 288 288 287 286 286 286 286 286 285 284
296 295 295 295 295 295 294 294 294 294 293 292 291 290 290 289 289 289 289 289 289 289 289 289 288 288 289 289 288 287 287 287 287 286 285 285 284 284 285 285 283 283
295 294 294 293 293 293 293 293 292 292 292 291 290 290 289 289 289 289 289 289 288 288 288 288 288 288 288 288 287 286 286 287 286 285 284 284 283 282 283 285 283 282
294 292 292 291 291 291 291 291 291 291 290 290 289 289 289 289 289 288 288 288 288 288 288 287 287 287 287 287 286 285 285 285 285 284 284 283 282 282 282 283 282 282
292 292 291 290 290 290 290 291 290 290 289 289 289 288 287 288 288 288 288 288 287 287 287 287 286 286 286 286 286 285 284 284 284 284 284 283 283 282 282 282 282 281
291 291 290 289 289 290 290 289 289 289 288 288 288 287 287 287 287 288 287 287 287 286 286 286 286 285 285 285 285 284 284 284 283 283 283 283 283 282 282 282 282 281
291 290 289 289 289 289 289 288 288 288 287 288 288 287 287 287 286 286 286 286 286 286 286 285 285 284 284 284 284 284 284 283 283 283 283 283 283 283 282 282 282 282
290 289 289 289 289 288 289 288 288 287 287 287 287 287 286 285 286 285 286 286 286 285 285 284 284 284 284 284 284 284 283 283 282 282 282 282 282 282 282 282 282 282
290 289 289 289 289 289 288 288 287 286 286 286 286 286 285 285 285 285 285 285 285 284 284 284 284 284 284 284 284 283 283 282 282 282 281 281 281 281 281 281 281 281
289 289 289 288 288 288 287 287 286 286 286 286 285 285 286 285 285 284 284 284 284 284 284 284 284 283 283 282 282 282 283 282 281 281 281 281 280 280 280 280 280 281
289 288 288 288 288 287 286 286 286 286 285 285 285 285 285 285 284 284 284 283 283 283 283 283 283 284 284 285 285 282 282 283 282 281 281 281 280 279 279 279 280 280
288 287 287 287 287 287 286 286 285 285 285 285 284 284 284 284 284 283 283 283 282 282 281 281 282 283 284 287 287 286 282 282 281 281 281 280 280 279 279 279 279 280
287 287 287 287 286 286 286 286 285 285 285 284 284 284 284 284 284 283 282 282 282 282 281 281 280 283 286 286 287 287 285 282 282 281 280 280 280 280 280 279 279 279
288 287 286 286 286 286 285 285 285 285 284 284 284 284 284 283 283 282 282 282 282 281 280 280 280 284 286 287 287 288 287 283 282 281 281 280 280 280 280 280 280 279
289 288 286 286 286 286 285 285 285 285 285 285 285 284 283 283 283 282 282 281 281 281 280 280 280 283 286 286 287 287 286 284 282 282 281 280 280 280 280 280 280 280
290 288 287 286 286 285 285 285 285 285 284 285 285 284 283 283 283 282 281 281 281 281 280 280 280 284 286 286 286 287 287 285 281 282 281 281 281 280 280 281 281 281
289 288 287 286 286 285 285 284 284 284 284 284 284 284 284 283 283 282 281 281 281 280 280 279 279 284 285 286 286 286 287 284 282 281 280 280 281 281 281 281 281 281
290 289 287 286 286 285 285 284 284 284 284 284 284 283 283 282 282 282 282 281 280 280 279 279 279 283 285 286 286 286 286 284 283 281 280 280 280 281 281 281 281 280
290 289 287 287 286 285 285 284 285 285 284 284 283 282 282 282 283 282 281 281 280 280 279 279 279 281 285 285 286 286 285 284 283 282 281 280 280 280 280 280 280 282
290 289 288 287 286 286 285 285 284 284 284 283 283 283 282 282 282 281 281 280 280 280 281 280 280 281 284 285 285 286 285 284 284 283 281 280 280 279 280 280 279 281
289 288 288 287 286 286 285 285 285 284 283 283 282 282 282 281 281 281 280 280 280 280 280 280 279 279 282 284 285 285 286 284 284 283 282 281 280 280 279 279 279 279

ECMWFNIL_sfc_thetae_108.txt.gz
Theta_e
305 300 300 300 300 301 300 299 299 298 296 295 293 292 291 291 292 293 294 296 297 297 297 297 296 296 296 295 294 293 292 291 290 290 289 289 287 286 286 284 283 283
303 301 299 299 299 299 299 299 298 297 296 295 293 291 290 291 292 293 293 295 295 296 295 294 293 293 293 292 291 291 289 289 288 290 288 287 286 285 284 283 282 282
301 300 299 299 299 299 299 299 297 296 296 294 293 291 291 291 291 292 293 294 293 293 294 293 292 291 290 290 289 288 288 287 287 286 286 286 285 284 283 282 282 281
300 300 299 299 300 299 299 298 297 297 296 294 292 291 291 291 291 292 292 292 292 291 291 291 290 289 288 288 287 287 287 287 286 286 285 284 284 284 283 282 281 281
299 299 299 299 299 299 298 297 296 296 295 293 292 291 289 289 290 290 291 290 290 290 289 289 289 288 287 287 286 286 285 285 284 284 284 283 283 283 282 281 281 280
299 299 298 298 298 297 297 297 296 295 294 292 291 290 288 288 289 289 289 289 289 289 288 288 287 287 287 286 285 285 284 284 284 283 283 283 282 282 282 281 280 280
298 298 297 297 296 296 296 296 296 294 293 291 289 288 287 287 287 287 288 289 288 288 288 287 286 286 286 285 285 284 283 284 283 283 282 281 281 281 280 280 280 279
297 297 296 296 295 294 294 293 293 292 290 288 288 286 286 286 286 287 287 287 287 287 287 286 286 286 285 284 284 283 283 284 283 282 281 280 280 280 279 280 279 279
294 294 294 294 293 292 291 291 291 290 289 288 286 285 285 286 286 286 287 287 287 286 286 285 285 285 284 284 283 283 282 282 282 281 280 280 279 279 279 279 278 278
292 292 292 292 292 291 290 290 290 289 288 287 286 285 285 285 285 286 286 286 285 285 284 284 284 284 283 283 283 282 282 282 280 280 280 280 280 279 279 279 279 278
292 291 291 291 291 290 290 289 289 288 288 287 286 285 285 284 284 285 285 285 285 284 284 283 283 283 283 282 282 282 282 282 280 280 280 279 279 280 281 280 279 279
293 291 291 291 291 290 289 288 288 287 287 287 287 286 284 284 284 284 284 284 283 283 283 283 282 282 282 282 282 282 282 281 280 280 279 279 279 280 280 280 279 279
292 291 291 291 290 289 288 287 287 286 286 286 286 286 284 284 283 283 283 283 283 282 282 282 282 282 282 282 282 282 282 280 279 279 279 279 279 280 280 280 279 279
292 291 291 291 290 289 288 287 287 287 286 286 285 284 285 284 284 283 282 282 282 282 282 282 281 282 282 282 282 281 281 280 280 280 279 279 280 280 280 279 279 279
292 291 291 290 290 289 288 287 287 286 286 285 285 285 284 283 283 283 282 282 281 281 281 281 282 282 282 282 281 281 281 281 281 280 279 280 280 279 279 279 280 280
291 290 290 290 289 288 288 287 287 286 285 285 285 285 283 283 282 282 282 282 281 280 281 282 282 283 284 285 285 282 281 281 281 280 280 279 279 279 279 279 279 279
290 289 289 289 289 289 288 287 286 286 285 285 284 284 283 282 282 282 281 281 281 281 281 282 282 283 285 287 288 287 282 281 281 280 279 279 279 279 279 279 278 279
290 289 288 288 288 288 288 287 286 285 285 284 284 284 283 282 281 281 281 281 281 281 281 282 282 284 287 288 288 288 285 281 280 280 280 280 279 279 279 278 278 278
289 288 287 287 288 288 287 286 286 285 285 284 284 284 283 282 281 281 281 281 281 281 281 281 281 286 288 288 288 288 288 283 281 280 280 280 279 279 279 278 278 278
288 287 287 287 287 287 287 286 286 285 285 285 284 284 283 282 282 281 281 281 281 281 281 281 281 285 288 288 288 288 287 285 280 280 280 280 279 279 279 279 278 278
288 287 287 287 286 286 286 286 286 285 285 285 285 284 283 283 282 281 281 281 281 281 281 280 280 286 288 288 288 288 289 284 280 280 280 280 279 279 279 279 279 279
288 287 287 286 286 285 285 285 285 285 285 285 284 284 284 284 283 282 282 281 281 281 280 279 279 287 288 288 288 290 288 282 280 280 280 279 279 279 279 279 279 279
289 288 287 286 285 285 284 284 284 285 285 285 284 284 283 283 282 282 282 281 281 280 280 279 279 285 287 288 288 289 287 281 280 280 280 279 279 279 279 279 279 279
289 288 287 286 285 285 284 284 285 285 285 285 284 284 283 283 283 282 282 281 280 280 280 279 279 283 287 287 288 288 285 281 280 280 280 279 279 279 279 279 280 281
288 288 287 287 286 286 285 285 284 285 285 285 284 284 284 283 283 282 281 281 280 280 281 280 279 282 287 288 288 288 285 282 281 280 279 279 279 279 279 279 279 281
288 287 287 287 286 286 286 285 285 285 284 284 284 284 283 282 282 282 281 281 280 280 280 280 279 280 285 287 287 287 286 283 282 281 280 279 279 279 278 278 278 278

ECMWFNIL_sfc_thetae_111.txt.gz
Theta_e
306 306 306 304 304 303 301 300 299 298 297 296 295 295 295 296 296 298 299 300 302 303 303 302 301 300 300 299 298 297 296 295 294 292 291 290 288 287 287 284 284 284
305 303 303 304 303 302 302 302 300 299 297 297 296 296 295 295 295 296 297 299 300 301 301 301 300 299 298 298 297 296 295 294 292 292 290 288 287 286 285 284 283 282
304 302 300 301 302 301 301 301 301 300 298 297 296 295 293 294 294 296 297 298 299 299 299 299 299 298 297 296 296 294 293 292 291 289 289 288 285 285 283 283 282 282
302 304 301 300 301 300 301 300 299 299 298 296 295 294 293 293 294 295 296 295 298 297 297 296 297 296 296 295 294 293 293 292 290 289 288 286 284 284 282 282 281 281
302 303 302 300 300 300 299 299 299 298 297 297 295 293 293 292 293 293 294 294 295 294 294 294 294 294 294 293 293 292 291 291 289 288 288 286 283 283 282 281 281 280
301 302 301 301 300 299 298 298 298 297 297 296 294 293 293 292 292 292 292 293 292 293 293 293 293 292 292 291 291 291 290 289 288 288 287 285 282 282 282 281 281 280
300 300 300 300 300 300 299 298 298 297 296 295 292 291 291 291 291 291 292 292 292 291 292 292 292 291 291 290 290 289 289 288 286 286 286 284 282 281 281 280 280 280
298 299 300 299 299 299 298 298 297 296 295 292 291 291 291 291 291 291 291 291 291 291 292 292 291 291 290 289 289 288 287 286 285 284 284 282 282 281 280 280 280 279
297 298 298 297 297 296 296 297 297 295 293 292 291 290 290 291 291 290 290 291 290 290 291 291 291 290 289 289 289 288 287 285 285 284 283 282 281 281 280 280 279 279
295 296 296 296 296 296 295 295 295 294 292 292 291 290 289 289 290 290 290 290 290 289 290 290 290 290 289 289 289 288 287 286 284 284 283 282 282 281 280 280 280 279
294 294 295 295 295 296 294 294 294 293 291 291 290 289 289 288 288 289 289 289 289 288 289 289 289 289 288 288 288 288 287 286 284 283 283 283 283 282 281 280 280 279
294 294 294 295 295 295 294 293 293 292 290 290 290 289 288 288 287 287 288 288 288 288 288 288 288 288 288 287 287 286 286 285 284 283 283 283 282 282 281 280 280 280
294 294 294 295 295 294 294 292 291 291 290 290 289 289 288 287 287 287 287 287 287 287 287 288 287 287 287 287 286 285 285 284 283 283 283 282 282 282 281 280 280 280
294 294 293 293 294 293 293 291 290 290 290 290 288 288 288 287 286 286 286 286 286 286 286 287 287 286 286 286 285 285 285 284 283 282 282 281 281 280 280 280 279 279
293 293 293 292 291 292 291 290 289 289 290 289 288 288 288 287 287 286 286 285 285 286 285 286 286 286 286 285 284 284 284 283 283 282 281 281 280 280 279 279 279 279
292 292 292 291 290 291 291 290 288 288 288 288 288 288 288 287 286 286 285 285 284 284 284 284 285 286 285 286 286 284 284 283 283 282 281 280 280 279 279 279 279 279
290 291 290 290 291 290 289 289 288 287 287 287 287 287 287 286 285 285 285 285 284 283 283 283 284 285 286 288 288 288 284 283 282 281 281 280 280 279 279 279 279 279
290 290 289 290 290 289 289 289 288 287 287 287 287 286 286 286 285 285 285 284 284 283 283 283 283 285 288 288 289 289 287 283 282 281 281 280 280 280 279 279 279 279
290 290 289 289 289 289 289 288 288 287 287 287 286 287 286 285 285 284 284 284 283 283 283 283 283 286 288 289 289 289 288 284 281 281 281 280 280 280 279 279 279 279
289 289 289 289 288 288 288 287 287 287 287 287 287 286 286 285 284 284 284 284 283 283 283 282 282 285 288 289 289 289 289 285 281 281 281 280 280 280 280 279 279 279
289 289 288 288 288 287 287 287 287 287 287 287 287 286 286 285 284 284 284 284 283 283 283 282 282 286 288 289 289 289 289 287 281 281 280 280 280 280 280 280 279 279
289 288 288 288 287 287 287 287 287 287 287 287 287 286 286 286 285 285 284 284 283 283 282 282 282 286 288 288 289 289 289 284 281 281 280 280 279 279 279 279 279 279
289 288 287 287 287 286 286 287 287 286 287 287 286 286 286 285 285 285 285 284 283 283 282 282 281 285 287 288 289 289 288 282 281 281 280 279 279 279 279 279 279 279
289 288 287 287 286 286 286 287 287 287 286 286 286 286 286 285 285 285 285 284 284 283 282 282 282 283 287 288 288 289 287 282 281 280 280 279 279 279 279 279 279 280
288 288 288 287 287 286 286 286 286 286 286 286 286 286 286 286 285 285 284 284 284 283 283 282 282 282 286 287 288 289 286 282 281 280 280 279 279 278 279 278 279 280
288 287 287 287 287 287 286 286 286 285 284 284 284 285 286 285 285 284 284 283 283 283 282 282 282 281 285 287 288 289 288 282 281 280 279 279 279 279 278 278 278 279

ECMWFNIL_sfc_thetae_114.txt.gz
Theta_e
303 304 305 305 305 306 305 303 302 302 301 301 301 301 301 301 301 302 305 306 306 306 305 304 303 302 300 299 297 297 295 294 293 292 291 290 290 290 290 288 286 286
302 303 303 304 305 305 305 304 303 302 301 301 301 301 301 300 300 300 302 304 305 306 306 304 303 302 301 299 297 297 295 294 293 293 291 290 289 289 290 289 287 285
301 301 302 303 304 304 304 304 303 302 301 300 300 300 300 300 300 300 301 303 304 304 305 304 303 302 301 299 298 297 296 294 293 292 291 290 290 289 289 289 287 285
300 301 302 302 303 303 304 303 303 302 301 300 299 299 299 298 299 299 300 299 302 303 304 304 302 302 301 300 298 297 296 295 294 292 291 291 290 289 289 287 286 284
299 300 301 301 301 302 303 303 302 302 301 300 299 298 297 296 296 297 298 298 299 299 301 302 302 300 300 299 297 296 295 294 294 292 291 291 290 289 288 285 284 283
298 299 300 300 299 300 302 302 303 302 301 300 299 297 296 295 295 295 296 297 297 298 299 299 300 299 298 298 296 296 295 294 294 292 291 291 289 288 288 285 284 283
297 298 299 299 298 298 299 301 302 301 301 301 298 295 295 294 294 294 295 295 296 296 297 298 298 298 297 297 295 295 294 294 293 291 291 291 289 287 286 285 284 284
297 297 298 298 298 299 297 298 300 300 300 298 296 295 293 294 294 294 294 295 295 296 296 296 296 297 296 296 295 295 294 293 292 290 290 290 288 286 285 284 284 284
296 295 296 296 297 298 297 297 298 298 297 296 296 294 293 293 293 293 294 294 295 295 296 295 296 295 295 295 295 295 294 293 292 290 290 289 287 286 285 284 283 284
293 293 293 294 295 296 296 297 298 297 295 295 295 293 292 292 293 293 293 293 294 294 295 295 295 295 294 294 294 294 294 293 292 290 290 290 288 287 285 284 283 283
291 291 292 293 294 295 295 296 297 297 295 295 294 293 292 292 291 292 292 293 293 293 294 294 294 294 294 293 293 294 294 293 292 290 290 290 289 287 285 284 284 284
291 290 292 292 293 294 295 296 297 296 296 294 294 294 292 292 291 291 291 292 292 293 293 294 294 294 294 293 293 293 293 292 291 290 290 290 289 288 286 285 284 284
291 291 292 292 292 293 294 295 295 295 295 295 293 293 292 291 291 291 291 291 291 292 292 292 293 293 293 293 293 292 292 291 290 290 289 289 288 288 286 285 285 284
291 290 291 291 292 292 293 293 294 294 294 294 293 292 292 291 291 291 290 290 291 291 292 291 291 291 292 292 292 292 291 291 290 289 289 288 288 287 285 284 284 284
290 290 290 290 291 291 291 292 292 292 293 293 292 292 292 292 292 291 290 289 290 290 291 291 290 290 291 291 291 290 290 290 290 289 288 288 287 286 285 284 283 283
290 289 290 289 290 291 291 291 291 291 291 291 291 291 291 291 290 290 290 289 289 289 289 289 289 290 289 290 291 290 289 289 289 288 288 287 286 285 284 283 283 282
289 289 289 289 290 291 291 290 290 290 290 289 290 291 290 290 289 289 289 289 289 289 288 288 289 289 289 291 292 291 289 289 288 288 287 287 286 285 284 283 282 281
289 288 288 289 289 290 290 290 289 289 289 289 289 289 289 289 288 288 288 288 288 288 288 288 288 289 290 291 291 292 290 288 287 287 286 286 285 285 284 283 282 281
289 288 288 289 289 289 289 288 288 288 288 288 288 289 289 288 289 288 288 288 288 287 287 287 287 289 290 290 291 291 291 288 287 287 286 285 285 284 284 283 282 281
288 288 288 289 289 288 288 288 287 288 288 288 288 288 287 288 288 288 288 288 287 287 287 287 287 287 290 290 290 291 291 290 287 286 286 285 285 284 283 282 282 281
288 288 288 288 288 288 287 287 288 288 288 288 288 287 287 287 287 287 287 287 287 287 287 287 286 288 289 290 290 291 291 290 287 286 285 285 284 284 283 282 282 281
288 288 288 288 287 287 287 287 287 288 288 288 287 287 287 287 287 287 287 287 287 287 286 286 286 288 288 289 290 290 291 288 287 285 284 284 283 283 282 282 281 281
288 288 288 288 287 287 287 287 287 287 287 288 287 287 287 287 287 287 287 287 287 286 286 286 286 287 288 288 289 290 290 288 287 285 284 283 283 283 282 281 281 281
288 288 288 288 287 287 287 287 287 287 287 287 287 287 287 287 287 287 287 287 286 286 286 286 286 286 287 288 289 289 288 287 286 285 284 283 283 283 282 281 281 282
287 287 287 287 287 287 287 287 287 287 287 287 287 287 287 287 287 286 286 286 286 286 286 286 286 286 287 288 288 289 288 287 286 284 283 282 282 281 281 280 280 281
287 287 287 287 287 287 287 287 287 287 286 286 286 286 286 286 286 286 286 286 286 286 286 286 286 286 286 287 288 288 289 287 286 284 282 282 282 281 280 280 279 279

ECMWFNIL_sfc_thetae_120.txt.gz
Theta_e
300 300 301 301 301 301 301 300 300 300 300 300 301 301 301 302 301 301 303 305 306 307 308 308 307 305 304 304 302 300 299 298 297 296 295 295 294 294 293 293 292 292
299 299 298 298 298 298 300 300 300 300 300 300 301 301 300 301 301 302 303 304 305 306 307 307 306 306 305 303 302 300 299 298 297 297 296 294 294 294 293 293 292 292
297 297 298 298 300 299 299 299 299 300 300 300 300 300 300 300 301 302 303 303 303 305 306 306 306 305 304 303 302 300 299 298 297 297 295 295 295 294 293 293 292 291
296 297 298 298 299 299 298 298 298 298 299 299 299 300 300 301 301 302 302 301 302 303 304 305 305 305 304 303 301 300 299 299 298 297 296 295 294 294 293 293 292 292
295 296 296 297 297 297 296 297 298 298 298 300 299 299 299 299 300 299 299 299 299 300 302 303 304 304 303 302 301 300 298 298 297 297 295 294 294 293 293 292 291 291
293 295 295 296 296 296 296 297 298 298 298 297 299 298 297 298 297 298 298 297 297 298 299 300 302 302 302 302 301 300 299 297 296 296 294 294 294 293 292 292 291 290
293 292 293 294 294 294 295 296 297 296 297 298 294 295 294 295 295 296 296 296 297 297 297 298 299 300 300 300 299 298 298 297 296 296 295 295 294 293 292 291 291 290
291 291 292 292 292 293 293 294 294 295 295 292 294 295 293 295 294 295 295 295 296 297 297 297 299 300 299 297 296 296 296 298 297 295 294 294 293 293 292 292 291 290
290 289 289 289 289 290 291 292 292 292 290 292 293 292 291 292 293 293 294 294 295 295 296 297 298 297 298 297 296 296 296 296 297 296 295 294 294 293 293 293 292 291
288 287 288 287 288 289 290 290 291 290 289 290 292 290 291 291 291 293 292 293 293 293 293 293 295 294 294 295 297 296 296 297 296 296 296 295 295 295 294 294 293 291
286 286 286 286 287 287 288 288 288 288 288 290 290 290 291 289 290 289 291 291 293 293 293 292 293 294 294 295 295 296 296 296 296 296 296 296 296 295 293 294 294 293
285 285 285 286 287 287 288 288 287 287 289 288 288 291 290 289 290 290 290 291 292 292 292 292 291 292 293 294 294 294 294 295 296 296 296 296 296 296 295 295 294 294
285 285 285 285 286 286 287 287 287 287 287 289 288 288 289 289 289 289 290 290 291 291 292 292 292 291 292 293 294 294 294 294 295 295 295 296 296 296 296 295 295 294
285 284 285 285 285 285 286 286 287 287 287 288 287 288 288 289 290 290 291 290 290 291 291 291 291 292 292 293 293 294 294 294 294 294 294 295 295 295 295 295 295 295
285 284 284 284 285 285 285 286 286 287 287 287 286 287 288 288 289 290 290 290 289 289 290 290 291 292 292 293 293 294 294 294 294 294 294 294 294 295 295 295 295 294
285 285 285 284 285 285 286 286 286 286 286 286 287 287 287 288 288 289 289 290 290 290 289 290 291 292 291 292 293 293 293 293 294 294 294 294 293 293 294 294 294 295
285 286 285 286 285 285 285 286 286 286 285 286 286 287 287 288 287 288 288 289 289 290 290 291 291 291 291 294 294 295 293 292 292 292 293 293 293 293 293 293 293 294
285 285 285 285 285 286 286 286 285 285 285 286 286 286 287 286 286 287 288 288 289 289 290 291 291 291 293 293 294 294 293 292 291 291 292 292 292 293 293 292 292 293
284 284 285 285 285 285 285 285 284 285 285 285 286 286 286 286 287 287 287 288 288 288 289 290 290 292 293 293 293 294 294 293 292 291 291 291 292 292 292 292 292 292
283 283 283 284 284 284 284 284 284 285 285 285 285 285 285 286 286 286 287 287 287 288 288 289 289 290 292 293 293 293 293 293 291 291 291 291 291 292 292 293 293 292
283 283 283 283 283 283 282 283 283 283 284 284 284 284 285 286 286 286 287 287 287 287 288 288 289 291 292 292 292 293 293 293 291 291 290 290 291 291 292 292 292 292
282 282 282 281 282 281 281 282 282 283 284 284 284 284 284 284 285 285 286 286 287 287 287 287 288 291 291 292 292 293 293 290 290 289 289 289 289 290 291 291 291 291
282 281 281 281 281 281 281 282 282 283 283 282 283 283 284 284 284 285 285 285 286 286 286 286 287 288 290 291 291 292 291 289 288 288 288 288 288 289 290 290 290 290
281 281 281 281 281 281 282 282 282 282 282 283 283 284 284 284 285 285 285 285 285 285 286 286 287 287 289 290 291 291 290 288 288 288 287 287 288 288 289 289 289 288
281 280 280 280 280 281 281 282 282 283 283 283 283 283 284 284 284 284 285 285 284 285 285 285 286 286 289 289 290 290 289 287 287 287 287 287 287 288 289 289 289 288
280 279 280 280 280 281 281 282 282 282 282 282 282 282 283 283 283 283 283 284 284 284 285 285 285 285 286 289 289 290 290 288 287 287 286 287 287 287 287 288 288 288

ECMWFNIL_sfc_thetae_123.txt.gz
Theta_e
303 303 304 305 305 305 305 304 304 304 304 305 305 306 306 307 306 306 307 308 308 309 310 310 310 309 308 307 306 305 303 302 301 300 299 299 298 298 298 298 298 298
302 302 302 302 303 303 304 304 304 304 304 304 304 305 305 304 304 305 306 306 307 307 308 309 309 309 308 306 306 305 304 302 301 301 300 299 298 298 298 298 298 298
300 300 301 302 303 303 303 303 303 303 303 304 303 303 304 303 304 303 305 305 306 307 307 307 307 308 308 307 305 303 302 302 301 301 299 298 298 298 298 298 297 296
299 300 301 301 302 302 302 302 301 301 302 302 303 303 303 303 303 303 304 302 305 306 306 306 306 306 306 305 304 303 302 302 302 301 299 298 298 297 297 297 296 295
298 298 299 299 300 300 300 300 301 301 301 302 302 301 301 301 301 301 302 302 303 304 304 304 304 305 305 305 303 302 302 301 301 300 298 297 297 296 296 296 295 295
296 297 298 298 299 299 299 299 300 300 301 300 301 301 301 300 300 300 300 301 302 302 302 302 302 303 304 304 303 302 301 300 300 299 298 297 297 296 296 296 295 294
296 295 296 297 297 297 298 298 299 299 299 300 298 298 298 298 298 299 300 300 300 300 300 301 301 301 302 302 302 301 301 301 299 298 297 296 296 295 295 295 295 294
294 294 294 294 295 296 296 296 296 297 297 295 296 298 296 297 297 298 298 298 299 299 300 299 300 301 301 301 301 300 299 299 299 297 296 296 295 295 295 296 295 294
291 291 291 291 292 293 293 294 294 294 293 294 295 296 294 295 297 296 297 297 297 297 298 298 299 299 300 300 300 299 298 297 298 296 296 296 295 295 296 296 295 294
290 289 289 290 291 292 291 292 292 292 291 291 293 293 293 293 293 294 294 294 294 295 295 296 296 296 297 297 299 298 298 298 297 296 296 296 296 296 296 295 294 294
289 289 289 289 290 290 290 290 290 290 290 290 291 291 292 292 292 292 293 293 294 295 295 295 295 295 296 296 296 296 297 297 297 297 297 296 296 296 294 296 295 294
288 288 288 289 289 289 289 289 289 289 289 289 290 291 291 291 291 291 292 292 293 293 294 294 294 294 294 295 295 295 295 296 296 297 296 296 296 296 296 295 295 295
287 288 288 288 288 288 288 288 289 289 288 289 289 289 290 290 290 291 291 291 292 292 293 293 293 293 294 294 294 295 295 294 294 295 296 296 296 296 296 296 295 295
287 287 287 288 288 287 288 288 288 288 288 289 288 289 289 290 290 290 291 290 291 291 292 292 292 293 293 293 294 294 294 294 294 294 294 295 295 295 296 296 296 296
287 287 287 287 287 287 287 287 288 288 288 288 288 288 289 289 289 289 290 290 290 290 291 291 291 292 293 293 293 293 294 293 294 294 294 294 294 295 295 295 295 296
286 287 287 287 287 287 287 287 287 287 287 287 287 288 288 288 288 289 289 289 290 290 290 291 291 292 290 291 292 293 294 294 294 294 294 294 293 294 294 295 295 295
286 286 286 286 286 287 287 287 287 287 287 286 287 287 287 288 288 288 288 289 289 289 290 290 291 291 290 293 293 294 293 293 293 293 294 293 293 293 293 294 294 295
285 285 285 286 286 286 286 286 286 286 286 286 287 287 287 287 287 287 288 288 288 288 289 289 290 290 292 293 293 294 293 293 293 293 293 293 293 293 293 293 293 293
285 284 285 285 285 285 285 285 285 285 286 286 286 286 286 286 287 287 287 288 288 288 288 289 289 290 292 292 293 293 293 293 293 293 292 292 292 293 293 292 292 292
284 283 284 284 284 284 284 284 283 284 285 285 285 285 286 286 286 286 287 287 288 288 288 289 289 289 291 292 292 292 293 293 292 292 292 292 292 292 292 292 292 292
283 283 283 283 283 282 282 282 283 283 283 284 284 285 285 285 286 286 286 286 287 287 287 287 288 289 290 291 292 292 293 292 292 291 291 291 291 291 291 291 292 292
282 282 282 282 282 281 280 282 282 282 282 284 283 284 284 284 284 284 284 285 286 286 286 286 287 289 290 290 291 292 292 291 290 290 290 290 290 290 291 291 291 291
282 282 281 281 281 280 280 280 281 281 282 281 282 283 283 283 283 284 285 285 285 285 285 286 286 287 289 290 290 291 291 289 288 288 288 288 289 289 290 290 290 290
281 281 280 280 279 279 280 280 280 280 280 281 281 282 282 283 283 284 284 284 284 284 285 285 286 286 288 289 290 290 290 288 288 287 287 287 288 289 289 290 289 287
281 280 279 279 279 279 279 279 280 281 281 280 281 280 281 282 283 283 283 283 282 283 283 284 285 285 287 288 289 290 289 287 287 287 286 286 287 287 288 289 289 288
278 277 277 277 278 278 278 278 279 279 279 279 280 280 281 281 282 282 281 283 283 282 283 283 284 284 285 287 288 289 289 288 287 287 286 286 286 286 286 287 288 288

ECMWFNIL_sfc_thetae_126.txt.gz
Theta_e
316 316 315 315 315 315 315 315 315 314 314 314 314 314 314 315 316 316 316 316 316 315 315 315 315 314 313 313 312 310 309 308 307 306 305 303 303 303 302 303 302 302
313 313 313 313 313 313 312 313 313 313 312 313 313 313 314 314 314 314 314 314 315 315 315 315 314 314 313 313 312 310 309 308 307 306 304 303 303 302 302 303 302 302
311 311 311 311 312 312 312 312 311 311 311 312 312 312 312 312 312 312 312 313 313 313 313 313 313 313 312 312 312 310 308 308 306 306 304 303 303 302 301 302 301 302
309 310 310 310 310 310 311 310 310 310 310 310 310 311 310 310 310 310 311 309 311 311 312 312 312 312 311 311 310 309 308 308 307 306 304 303 303 303 302 302 301 301
309 308 308 308 309 308 308 308 308 309 309 309 310 310 309 309 308 309 309 309 310 310 310 310 311 310 310 310 310 308 307 306 306 305 304 303 303 302 302 301 300 300
306 307 307 307 307 307 307 307 307 308 308 308 308 308 308 308 307 307 308 308 308 308 308 308 308 308 308 308 308 307 305 305 305 305 303 302 301 301 301 300 299 298
306 305 305 305 305 305 305 306 306 306 306 307 307 306 306 306 305 306 307 307 307 306 306 306 306 306 307 307 306 305 305 305 305 304 302 301 300 298 298 298 298 297
304 304 304 304 304 304 304 304 304 305 305 304 304 304 304 304 304 305 305 305 305 305 305 305 305 305 306 306 305 305 304 304 304 303 301 299 298 297 297 298 297 296
302 302 301 301 302 302 302 302 303 303 303 302 302 303 303 303 303 303 303 303 303 303 303 303 304 304 305 304 304 304 304 303 303 302 300 298 298 298 297 297 296 296
300 299 300 300 301 301 301 301 301 301 300 300 301 301 301 301 302 302 302 301 300 300 301 301 302 302 303 303 303 303 303 303 302 301 301 299 299 299 299 298 297 296
300 300 300 300 300 300 299 299 299 298 298 298 299 299 299 299 299 299 299 299 299 299 300 300 301 301 301 302 302 302 302 301 301 302 301 300 299 299 295 297 298 297
299 299 298 298 298 298 298 298 297 297 297 298 298 298 298 298 298 298 298 298 299 299 299 299 300 300 300 300 300 300 300 300 300 300 300 300 300 300 300 299 298 298
297 297 297 297 297 297 297 296 296 296 296 296 297 296 296 297 297 297 298 298 298 298 298 299 299 299 299 300 300 300 300 299 299 299 299 299 299 299 299 299 299 298
295 295 295 296 296 295 295 295 295 296 296 296 296 296 296 296 296 296 297 297 297 297 298 298 298 298 298 299 299 299 299 298 298 298 298 298 298 298 298 298 298 298
294 294 294 294 294 294 294 294 294 295 295 295 295 295 296 295 295 295 295 296 296 296 296 297 296 297 298 298 298 298 298 298 298 297 297 296 297 297 298 298 298 299
292 292 293 293 293 293 293 293 293 293 294 294 294 294 294 294 294 295 295 295 295 295 296 296 296 297 294 291 292 295 296 297 297 296 296 296 296 296 296 296 297 297
292 292 292 292 292 292 292 292 292 293 293 292 293 293 293 293 293 294 294 295 294 294 295 296 296 296 291 293 293 293 294 295 295 295 295 295 295 294 294 295 295 296
291 291 291 291 291 291 291 291 291 291 291 292 292 291 292 293 293 293 293 294 294 294 294 295 295 292 292 292 292 292 292 294 295 295 295 295 295 295 295 295 295 296
290 290 290 290 289 289 290 290 288 289 289 289 290 291 292 292 292 292 293 293 293 293 293 294 294 292 292 292 292 292 292 292 294 295 295 295 295 295 295 295 295 294
289 289 289 289 288 288 289 288 288 288 289 290 289 290 290 290 291 290 292 292 292 292 292 293 293 291 291 291 291 291 292 292 293 294 294 294 294 294 294 294 294 294
289 288 288 288 288 287 287 287 287 287 287 288 288 289 288 288 289 288 290 289 290 291 291 291 293 291 291 291 291 291 292 292 293 293 293 293 294 294 294 294 294 294
287 288 287 287 286 286 286 286 286 286 286 287 287 288 288 288 288 288 288 287 289 289 289 290 291 291 290 290 290 291 291 292 292 292 292 292 292 293 293 293 293 293
286 286 286 285 285 285 285 285 285 285 286 287 286 287 287 287 287 287 287 287 287 287 288 289 290 290 289 289 290 290 290 290 291 290 290 291 291 292 292 292 293 293
285 285 284 284 284 284 284 285 285 285 286 286 285 285 286 286 286 287 287 287 287 287 288 287 287 288 288 289 289 289 289 289 289 289 289 289 290 291 291 291 291 287
284 284 283 283 283 283 283 283 284 284 285 285 285 285 285 286 286 286 286 286 287 286 285 286 286 287 288 288 288 289 289 288 288 288 288 288 288 289 290 291 291 289
282 282 282 282 282 282 282 283 283 283 283 283 284 285 285 286 286 286 285 286 286 286 286 286 287 287 287 287 288 288 288 288 288 288 287 287 287 288 288 288 290 290

ECMWFNIL_sfc_thetae_129.txt.gz
Theta_e
320 320 320 319 319 320 319 319 319 318 318 318 317 317 317 318 318 318 317 317 316 316 316 316 316 316 315 314 314 312 311 310 309 309 307 306 305 304 304 304 304 304
319 319 318 319 318 318 317 318 317 317 316 316 316 316 316 316 316 316 315 315 315 315 315 315 315 315 315 314 313 312 311 310 309 310 308 307 306 305 304 304 304 304
318 317 316 316 315 315 315 315 315 315 315 315 315 314 315 314 314 313 313 313 313 313 313 314 313 313 313 313 313 312 311 309 308 309 308 307 307 305 305 304 304 303
316 315 315 314 314 315 315 314 313 313 313 313 313 313 313 313 312 311 312 310 311 311 312 312 312 312 312 312 312 310 310 310 309 308 307 306 305 305 304 304 303 303
314 313 313 313 313 313 313 312 312 312 312 312 312 312 311 310 310 310 309 310 310 310 310 310 311 311 311 310 310 309 309 308 309 308 306 305 305 304 304 303 302 301
312 312 312 311 311 311 310 310 311 311 311 310 310 310 310 310 309 308 308 308 309 309 308 308 308 309 309 309 308 308 308 308 307 306 305 304 303 303 303 302 300 298
310 309 309 310 309 310 309 309 309 309 309 309 309 308 308 307 307 307 307 307 307 307 307 307 307 307 307 307 307 306 306 306 306 305 304 302 302 300 299 299 298 297
309 309 309 308 308 307 308 308 307 307 307 306 306 307 306 306 305 306 305 305 305 305 306 306 306 306 306 306 305 305 304 305 305 304 303 302 300 299 297 299 297 296
307 306 306 306 306 306 306 306 305 305 305 305 305 305 305 305 304 304 304 304 304 304 304 304 304 304 304 304 304 304 303 304 304 303 302 301 300 299 298 297 296 295
304 304 304 304 304 304 304 304 304 304 303 303 303 303 303 303 303 303 303 303 302 302 302 302 302 302 303 303 303 303 302 302 302 303 303 302 301 300 299 298 297 296
303 303 303 303 303 303 302 301 301 301 301 301 301 301 301 301 301 301 300 301 300 300 301 301 301 301 301 301 302 302 302 301 301 301 301 300 300 301 297 299 298 297
301 301 301 301 301 301 300 300 300 300 300 300 300 300 300 300 300 300 300 300 300 300 300 300 301 300 300 300 300 300 300 300 300 300 300 299 299 299 299 299 298 298
299 299 299 299 299 299 299 298 298 298 298 298 298 298 298 298 299 298 299 299 299 299 299 299 299 299 300 300 300 300 300 299 299 299 299 299 299 299 298 298 298 298
297 297 297 297 297 297 297 297 297 297 297 297 297 297 297 298 298 298 299 299 298 298 298 298 298 298 298 298 298 299 298 298 298 298 297 297 297 297 297 297 297 298
295 295 295 295 295 296 296 295 296 296 296 296 296 297 297 297 297 296 296 297 297 297 297 298 297 297 298 298 296 296 296 296 297 297 296 296 296 296 296 296 297 297
294 294 294 294 294 294 294 294 294 294 294 295 295 296 296 296 296 296 296 296 296 296 296 297 297 299 294 291 292 293 294 294 295 295 295 295 294 294 295 295 295 296
293 293 293 293 293 293 293 293 293 294 294 294 294 294 294 294 295 295 295 295 295 295 295 297 298 298 292 293 293 293 292 293 293 294 294 294 294 294 294 294 294 295
292 292 292 292 292 292 292 292 292 292 293 294 294 292 293 294 294 294 295 295 296 295 295 295 296 293 293 292 292 292 292 292 292 293 293 294 294 294 294 294 294 295
292 291 291 291 291 290 291 291 291 291 291 291 291 293 292 294 294 293 294 294 294 293 293 294 293 292 292 292 292 292 292 291 291 292 292 292 293 293 293 293 293 293
291 291 290 290 289 289 290 290 290 290 290 291 290 290 291 291 291 291 292 292 292 292 292 292 292 291 292 292 291 291 291 291 291 291 292 292 292 293 293 293 293 293
290 290 289 288 289 288 287 287 288 288 288 288 289 289 288 289 289 288 290 289 290 290 290 290 292 291 291 291 291 291 291 290 291 292 292 292 292 292 292 292 292 293
289 289 288 288 288 287 286 286 286 286 286 287 287 288 288 288 288 288 288 287 288 289 288 288 289 290 290 290 289 290 290 289 290 290 290 290 290 291 291 291 291 291
288 287 287 286 286 286 285 286 285 285 286 286 286 286 287 287 287 287 287 287 287 287 287 288 288 289 289 289 289 289 288 287 288 287 288 289 289 290 290 290 290 291
287 286 285 285 285 284 284 285 285 285 286 285 285 285 285 286 286 286 287 286 286 286 286 286 286 287 288 288 288 288 288 286 287 287 287 287 288 289 289 289 290 287
285 285 284 284 284 284 283 283 284 285 285 285 285 285 285 286 286 286 286 286 286 286 286 286 286 286 288 288 288 288 287 286 286 286 286 286 286 286 287 288 288 288
283 283 283 283 282 283 283 283 284 284 284 284 284 285 285 286 286 286 285 286 286 286 286 286 286 286 286 287 287 287 287 286 286 285 284 285 285 285 285 286 287 287

ECMWFNIL_sfc_thetae_132.txt.gz
Theta_e
315 315 314 314 314 314 314 313 313 313 313 310 308 308 308 309 308 308 308 308 308 308 308 307 309 309 309 308 306 306 305 306 306 306 305 304 303 303 303 302 302 303
314 314 313 313 312 311 310 310 309 310 308 308 307 306 306 306 306 306 306 307 307 307 307 307 306 306 308 308 306 304 303 301 300 303 305 304 303 302 302 302 302 302
312 312 312 311 311 309 308 307 307 306 306 306 306 305 306 305 305 304 304 304 305 304 305 306 306 305 304 304 306 306 304 301 302 304 305 304 303 302 302 302 301 301
310 310 310 309 308 309 307 307 304 304 304 306 304 304 306 305 303 303 303 301 303 304 304 303 303 303 302 302 302 301 301 301 302 302 301 300 301 301 302 302 301 301
309 308 308 307 306 308 307 306 305 303 303 303 304 303 304 302 301 300 299 301 300 301 301 301 300 299 299 298 298 297 298 300 302 301 301 300 300 301 302 301 299 298
307 306 306 306 305 306 306 304 304 304 303 302 303 303 302 300 297 297 297 298 300 300 300 299 299 299 298 297 297 298 299 300 300 301 301 300 299 298 301 300 298 298
306 305 305 304 304 304 303 303 302 302 302 301 299 298 298 297 296 296 297 297 298 298 298 297 297 299 299 298 299 300 300 301 300 300 300 298 298 298 297 297 297 297
304 303 303 303 302 302 302 301 299 298 297 297 296 296 296 296 295 295 296 297 297 297 298 298 299 302 300 299 299 299 299 301 301 299 298 298 297 297 296 297 295 296
302 300 300 299 300 298 298 299 297 296 296 296 295 295 295 295 294 294 295 295 296 296 298 297 298 297 297 298 298 298 297 297 298 298 297 297 296 296 296 295 295 294
299 298 298 298 298 298 297 296 297 296 294 294 294 295 296 294 293 293 293 292 294 295 296 296 295 296 296 297 298 297 296 297 297 297 297 296 295 296 295 294 295 294
296 296 297 297 297 297 295 295 294 294 293 293 294 294 294 293 292 291 290 292 294 294 295 295 295 296 297 297 297 296 296 296 296 296 295 295 295 295 294 295 295 294
295 296 296 296 295 295 294 294 294 294 293 292 293 294 292 292 291 290 291 290 291 292 293 293 293 294 295 295 295 296 296 296 295 295 295 294 294 294 294 294 293 294
294 294 294 294 294 293 293 293 292 292 292 292 291 291 291 290 288 289 289 289 289 289 289 290 291 291 291 293 293 292 292 292 291 290 291 291 292 290 290 290 291 291
292 291 292 292 292 292 292 291 291 291 291 291 290 290 289 289 289 289 288 288 288 288 289 288 287 287 288 288 287 287 287 287 288 287 287 287 287 287 288 288 289 289
291 290 291 291 291 291 291 291 290 290 289 289 289 290 291 289 289 289 288 288 287 288 288 288 290 290 289 286 286 286 285 286 286 286 285 286 286 285 286 286 287 288
289 289 289 289 289 289 289 289 289 289 289 288 288 288 288 288 287 288 288 287 288 287 287 289 289 290 288 291 291 288 286 286 287 285 285 285 285 285 286 286 287 287
289 289 288 288 288 288 288 288 288 288 288 288 288 287 287 287 287 287 287 287 287 287 288 289 289 289 291 292 293 293 288 285 285 284 284 284 284 284 286 287 287 286
288 288 288 287 287 287 287 287 288 288 287 287 287 287 286 286 287 287 286 286 288 286 287 287 286 290 292 292 292 292 291 285 284 284 285 284 283 284 286 286 286 287
287 287 287 287 286 286 287 287 287 287 286 286 286 286 286 286 285 286 285 285 285 284 284 284 284 291 291 291 291 291 291 288 283 283 283 284 285 286 286 287 287 286
287 286 286 286 286 286 286 286 286 285 285 285 285 285 285 284 284 284 284 283 283 283 283 283 283 289 290 290 290 290 290 290 285 285 285 286 287 287 288 287 287 287
286 286 285 285 285 285 285 285 284 284 284 284 284 283 283 282 282 282 283 282 283 284 283 282 285 289 290 289 289 289 289 289 287 287 287 286 286 284 284 285 286 287
285 285 285 284 284 284 284 284 283 283 283 282 282 282 280 281 281 282 282 283 285 285 284 283 283 289 289 289 288 289 288 285 283 284 283 283 284 284 284 285 283 284
285 284 284 283 283 283 283 282 282 282 281 280 281 281 280 281 280 281 283 284 284 284 284 284 284 287 288 288 288 289 286 279 281 280 280 280 281 281 283 283 283 283
283 283 283 283 282 282 282 281 281 281 280 279 280 280 280 280 281 282 282 282 282 283 284 284 285 285 287 287 287 288 286 282 282 279 278 279 281 281 283 282 283 284
282 282 282 282 281 280 281 280 280 280 280 279 280 279 280 281 282 282 282 282 283 285 285 284 284 285 287 287 287 287 286 283 282 278 278 279 281 281 281 283 283 284
281 281 280 280 280 279 279 279 279 279 279 278 278 278 279 281 282 283 284 284 285 285 284 284 284 284 285 286 287 287 287 283 281 279 281 281 282 282 282 282 282 282

ECMWFNIL_sfc_thetae_135.txt.gz
Theta_e
313 312 313 313 312 312 311 311 309 310 308 308 309 309 309 311 308 308 310 308 306 307 305 306 306 305 304 303 302 301 302 303 303 303 303 304 304 303 303 302 300 301
312 311 310 310 308 308 309 310 310 310 309 307 308 307 307 306 304 306 305 304 302 302 302 304 304 304 303 303 301 301 300 302 303 303 304 303 303 302 302 301 301 300
311 310 311 311 312 310 309 309 310 309 308 307 304 305 305 305 304 303 303 303 302 300 301 300 299 301 302 302 301 301 300 299 301 301 302 302 301 301 301 300 299 299
310 311 311 310 310 309 307 306 306 306 305 304 304 304 305 303 303 301 300 299 301 299 298 299 299 298 297 297 299 298 301 301 300 301 300 299 299 299 299 299 299 298
309 309 308 308 307 307 306 306 305 304 305 303 302 302 302 302 301 299 298 295 297 295 297 297 297 296 296 295 294 296 297 298 297 297 296 297 297 299 299 298 297 296
306 307 307 307 306 306 305 305 304 303 302 302 302 301 301 300 298 296 296 296 294 296 295 295 295 295 294 293 293 294 294 297 298 297 296 296 297 296 299 298 297 296
306 306 304 304 304 305 304 303 302 302 302 302 299 299 297 295 295 295 295 294 294 295 296 294 295 295 295 295 296 296 297 297 296 297 298 297 298 296 296 297 295 295
305 302 303 302 302 301 302 301 300 299 299 297 297 295 296 295 295 295 294 294 294 295 296 297 299 301 296 296 295 296 296 299 297 297 295 295 294 295 294 294 294 294
301 300 300 299 299 297 297 297 296 294 295 297 296 294 295 295 294 294 294 295 295 295 297 297 298 296 296 297 297 297 296 296 296 294 294 294 293 294 294 294 293 292
298 296 297 296 297 295 296 294 294 294 294 295 294 294 294 293 294 293 292 293 294 295 295 295 295 295 295 295 297 295 295 294 294 294 295 293 293 292 292 292 292 292
295 295 296 295 295 293 294 293 293 293 294 294 293 293 293 292 292 291 291 293 294 294 296 296 295 295 296 296 295 294 294 294 292 291 291 291 292 292 292 290 290 289
295 294 295 294 294 293 293 293 292 292 293 293 294 294 291 291 292 292 292 291 292 294 294 294 293 292 292 292 291 291 290 290 290 289 288 288 288 288 288 288 288 287
294 294 294 293 292 292 291 292 292 290 292 292 291 292 291 290 289 290 289 290 290 289 289 289 289 289 288 287 287 286 286 286 286 286 287 285 286 286 286 287 287 287
293 291 291 292 291 291 291 291 290 290 290 290 289 290 290 290 290 290 289 289 289 289 288 287 288 287 285 284 284 285 284 284 284 284 284 283 283 283 283 284 285 285
290 290 291 291 290 291 290 290 290 290 289 289 289 289 289 289 289 289 289 289 288 288 287 287 288 287 286 285 285 284 284 284 283 283 283 284 283 283 283 283 283 284
289 290 290 290 290 290 290 289 289 289 289 288 288 288 288 288 288 288 288 289 288 287 287 288 287 287 288 290 289 285 283 283 282 282 283 283 283 283 282 283 283 283
289 289 289 290 289 289 288 288 288 288 288 288 287 287 287 287 288 288 287 287 288 288 288 287 286 287 290 292 292 291 284 283 282 282 282 283 282 282 282 284 284 283
288 288 288 288 288 288 287 287 287 287 287 287 287 287 287 287 287 287 287 287 287 287 286 286 286 290 292 291 291 291 288 283 281 282 282 283 282 283 282 282 284 285
288 288 287 287 287 287 287 287 287 287 287 287 287 287 286 287 286 286 285 285 286 286 285 285 285 290 290 291 291 291 290 285 281 282 282 283 284 284 283 282 284 285
287 287 287 287 286 286 286 286 286 286 286 286 286 285 286 285 285 284 284 285 285 285 284 283 283 288 290 290 290 290 289 287 281 281 281 282 284 284 284 284 284 284
287 287 286 286 286 286 286 286 286 285 285 285 285 285 285 285 284 284 284 283 283 283 283 283 285 289 289 289 289 289 288 286 280 282 282 282 283 284 285 285 285 285
286 286 286 286 286 285 285 285 285 285 284 283 283 283 283 283 283 283 283 282 282 283 282 282 284 288 288 289 288 288 287 282 281 281 282 283 284 284 284 284 284 284
286 286 285 285 285 285 284 284 283 283 282 283 283 283 283 283 282 282 282 282 282 282 282 281 282 286 288 288 288 287 284 277 280 280 281 283 283 283 284 284 284 284
286 286 285 285 284 284 283 282 282 282 282 282 283 282 282 282 282 282 282 281 281 281 281 281 281 284 287 288 287 286 284 280 280 281 281 282 282 283 283 283 283 284
285 285 285 284 283 283 282 281 281 281 281 281 281 282 282 281 282 281 281 281 281 281 282 281 281 283 287 287 286 286 284 280 280 280 280 281 281 281 282 282 282 283
283 283 283 282 282 281 281 280 280 280 280 281 280 281 281 281 281 282 282 282 282 282 282 282 281 279 284 286 285 285 285 282 281 280 281 281 281 280 280 280 281 281

ECMWFNIL_sfc_thetae_138.txt.gz
Theta_e
316 314 315 314 314 312 312 311 310 311 312 311 312 312 313 312 309 310 310 308 306 307 306 307 307 305 304 302 302 300 299 301 301 303 303 304 303 303 303 302 300 301
315 313 311 312 310 308 310 311 310 311 310 309 310 309 308 309 306 307 306 306 304 305 304 305 305 306 304 304 302 302 301 302 303 303 304 303 303 303 302 301 301 300
313 312 312 312 312 310 310 308 309 309 309 307 305 307 308 305 305 303 304 304 303 301 301 303 304 305 305 303 303 302 302 301 301 301 302 303 302 302 302 300 299 299
312 312 312 311 311 309 307 307 306 306 304 304 305 305 305 303 303 302 301 300 301 298 298 300 302 302 302 302 301 299 299 300 299 298 299 300 299 299 298 298 298 296
310 310 310 310 307 307 306 308 307 306 306 305 301 301 301 301 302 301 300 297 298 295 296 296 296 298 298 299 299 298 297 298 297 298 297 296 296 297 296 295 295 295
306 309 308 308 307 307 306 307 307 306 304 301 302 301 302 302 300 299 297 296 294 295 295 293 294 293 295 295 295 295 295 296 295 297 297 297 295 294 297 294 293 293
306 305 305 305 305 306 306 305 305 304 304 302 299 299 299 298 297 297 297 296 295 295 295 294 294 293 293 294 295 295 296 298 297 298 297 295 294 294 294 295 294 294
304 302 304 304 305 304 305 303 301 301 300 298 299 296 297 297 296 295 294 296 296 295 294 294 295 296 292 294 296 297 297 299 296 296 295 292 294 294 292 292 292 292
304 303 304 303 305 302 302 299 297 295 296 298 297 294 292 296 295 294 295 295 295 294 295 295 295 294 293 294 296 296 296 297 296 294 294 293 292 291 292 291 290 289
304 303 303 303 304 301 300 297 295 295 294 296 295 294 294 291 295 295 294 295 294 293 294 294 295 293 293 295 296 296 295 296 294 293 293 291 291 290 288 287 287 287
302 301 302 301 301 298 297 295 294 294 293 295 294 293 293 292 291 293 294 294 295 294 295 295 296 296 296 295 295 295 295 295 294 293 292 291 290 288 286 286 286 286
302 300 300 299 298 296 295 294 293 293 293 292 295 295 292 292 293 291 293 293 293 295 295 295 295 295 295 295 294 294 294 293 292 291 289 288 288 287 286 285 286 285
301 300 298 296 295 293 292 292 293 292 293 293 291 293 292 291 291 291 289 292 292 294 294 293 293 292 293 293 292 292 291 290 288 286 284 285 284 284 284 285 284 284
296 294 295 295 292 291 291 291 291 291 291 290 290 291 291 291 291 291 288 290 290 292 291 290 290 290 291 290 288 287 286 286 285 285 284 283 282 282 282 282 284 285
293 292 291 291 290 291 290 290 290 289 289 289 289 288 289 288 289 289 288 288 289 289 288 288 288 288 288 287 287 286 285 285 284 283 283 283 282 282 282 282 282 282
291 290 290 290 290 291 290 289 289 288 288 288 288 288 287 287 288 288 288 288 288 288 287 287 287 285 286 288 288 286 285 284 283 283 283 282 282 282 282 282 283 282
290 290 289 290 290 289 288 289 288 288 288 288 287 287 287 287 287 288 287 288 288 288 287 286 285 286 289 291 290 287 283 283 284 283 282 282 281 282 282 282 283 283
290 289 290 289 289 289 288 288 288 288 288 287 287 286 286 286 287 287 287 287 287 286 285 285 285 289 292 291 291 289 286 282 282 283 283 282 281 281 282 284 283 283
289 289 290 289 289 288 288 287 287 288 287 287 287 287 286 287 287 287 287 286 286 285 284 284 284 291 291 292 291 290 288 284 283 282 283 282 282 283 283 284 283 282
289 289 289 288 287 287 287 287 287 287 287 287 287 286 287 286 286 286 286 286 285 284 284 284 284 289 290 290 290 289 288 285 282 283 282 282 282 283 284 283 282 282
288 288 288 287 287 287 287 287 287 287 286 286 286 287 286 286 286 286 285 284 283 283 283 284 286 290 290 289 289 289 288 285 282 283 282 282 283 283 283 282 281 284
288 288 287 287 286 286 287 287 286 286 286 286 285 285 284 284 284 284 284 283 283 283 283 284 285 289 289 289 289 288 286 282 282 282 281 282 283 283 282 282 283 283
288 288 287 287 286 286 286 286 286 286 285 285 285 284 284 284 283 283 283 282 282 282 283 283 284 287 288 288 287 287 284 281 282 282 282 282 282 282 282 283 283 283
288 287 287 286 286 286 286 286 285 285 284 285 285 283 283 283 282 282 282 281 281 281 282 283 283 285 287 287 286 286 284 281 281 282 281 281 281 282 282 282 283 283
286 286 286 286 286 286 286 285 284 284 283 283 283 283 282 282 282 281 280 280 280 281 282 283 283 284 286 286 285 285 283 281 281 281 281 281 281 281 282 281 281 282
285 286 286 286 285 284 283 283 282 282 282 282 282 282 281 281 281 281 280 280 280 281 282 282 282 283 285 286 285 285 284 282 282 281 280 280 280 280 279 280 280 280

ECMWFNIL_sfc_thetae_144.txt.gz
Theta_e
321 321 321 320 320 319 318 315 314 316 318 319 320 320 321 321 319 320 320 320 319 319 318 317 315 313 312 311 310 308 307 307 306 304 303 302 300 300 300 298 298 300
319 318 316 318 317 314 316 316 314 315 315 317 319 320 320 319 318 319 319 319 317 317 316 315 314 313 311 309 308 308 306 304 303 302 301 300 299 298 297 294 295 295
318 317 317 317 318 315 314 313 313 313 313 314 316 318 318 317 317 318 319 318 316 315 313 313 313 311 310 309 308 307 305 304 303 300 301 301 300 300 299 298 297 298
316 317 317 317 317 314 312 311 311 311 310 310 313 315 316 315 316 316 316 311 315 313 311 311 311 310 309 308 306 305 305 305 304 301 301 299 300 300 298 298 297 296
314 315 316 316 314 312 311 311 311 310 310 311 310 309 311 313 313 313 313 312 313 310 308 308 308 308 307 306 305 304 302 302 300 302 301 299 296 298 296 297 296 294
311 313 313 315 313 312 311 311 311 310 310 308 309 307 310 311 312 311 310 309 307 308 306 305 305 304 305 304 303 304 301 301 299 301 300 299 295 295 296 296 295 294
310 311 312 312 311 311 311 311 311 308 310 310 307 306 307 307 308 309 308 307 305 304 305 304 304 302 302 302 302 301 300 301 298 299 300 297 296 294 294 295 295 294
309 308 310 310 311 311 311 310 309 307 307 304 305 305 305 306 306 306 306 306 305 304 303 302 302 303 300 302 301 301 299 300 298 298 299 297 296 295 293 294 293 292
306 307 308 308 309 308 308 307 306 304 303 304 304 302 300 304 304 303 303 303 303 302 302 300 302 301 299 301 301 300 299 298 298 299 298 296 295 294 293 292 292 291
305 304 304 306 307 306 306 305 305 304 302 304 303 301 301 300 301 302 301 301 301 300 300 299 299 299 298 299 301 300 299 298 297 297 297 297 296 293 292 292 291 289
303 303 304 304 305 304 304 303 302 302 300 303 301 300 300 298 297 298 300 300 300 299 299 298 298 297 297 297 298 299 299 298 296 296 296 295 294 293 290 291 290 289
302 302 303 304 304 303 302 301 300 300 299 299 300 301 298 298 298 297 298 298 298 298 298 297 296 296 297 297 297 297 297 296 295 294 293 292 292 291 290 290 289 286
302 302 303 303 302 302 301 300 299 299 299 299 298 299 297 296 296 296 294 297 296 295 295 295 294 294 295 296 296 296 296 294 293 292 291 291 290 289 287 285 285 285
302 302 302 302 302 301 300 300 299 298 299 298 296 297 296 296 295 295 292 293 293 294 293 293 293 293 294 294 294 294 293 292 292 291 290 288 286 285 285 285 285 285
300 299 300 299 299 299 298 298 298 297 297 296 295 296 295 295 295 294 292 291 290 291 291 291 293 293 293 293 293 292 292 291 290 289 289 286 285 284 284 284 284 284
298 296 297 296 297 297 296 295 295 294 294 293 295 294 293 293 293 293 293 292 291 291 291 292 292 293 291 292 293 292 291 290 289 289 288 287 286 285 285 285 284 283
295 294 293 294 296 295 293 293 294 292 292 293 292 292 292 292 292 293 292 292 292 291 291 291 291 291 291 294 294 293 290 289 289 288 288 287 287 286 284 283 283 283
294 294 293 294 293 294 293 293 292 291 292 291 291 290 290 290 291 291 291 291 291 291 290 290 290 290 294 294 294 293 291 289 289 288 288 287 286 285 283 282 282 282
293 293 293 292 292 292 291 291 290 291 291 290 290 289 289 290 290 289 289 289 290 290 289 289 289 292 293 293 293 293 293 289 288 288 287 286 285 283 283 282 282 282
292 292 292 292 291 290 290 290 290 290 290 289 289 288 289 289 288 289 288 289 290 289 288 288 289 291 293 293 292 293 292 290 287 287 286 284 283 282 282 282 282 281
291 291 292 291 290 290 289 289 290 289 289 288 289 289 289 289 288 288 288 288 289 289 289 288 289 291 292 292 292 292 292 289 285 284 283 282 281 281 281 281 281 281
291 291 290 290 289 289 289 289 289 289 288 288 288 288 288 288 288 288 287 287 288 288 288 287 288 291 291 291 292 292 290 285 283 282 281 281 280 280 280 280 281 282
290 291 290 289 289 289 288 289 288 287 287 287 288 288 287 288 287 287 287 287 287 287 288 287 288 290 290 291 291 290 285 282 281 281 280 280 280 280 280 280 281 281
290 290 290 288 288 288 288 288 288 287 287 288 288 287 287 287 287 286 287 287 287 287 287 286 286 287 290 290 289 287 284 281 281 280 280 280 280 281 281 281 281 282
287 288 289 288 288 288 288 287 287 287 287 287 287 287 287 286 286 286 285 285 286 286 285 286 286 287 289 289 288 286 283 281 281 280 280 280 280 280 280 280 281 281
285 286 287 288 287 287 287 287 287 286 286 287 287 287 286 285 285 285 284 283 284 284 285 285 285 284 286 288 287 286 285 281 281 280 279 279 279 279 279 279 279 280

ECMWFNIL_sfc_thetae_150.txt.gz
Theta_e
327 327 327 327 327 328 328 327 327 327 327 327 327 328 328 329 329 329 329 329 329 328 327 328 327 326 325 326 326 324 323 322 321 321 320 319 320 319 317 317 317 316
327 326 326 327 327 327 328 328 328 327 327 327 327 328 329 329 329 329 328 328 328 327 328 327 327 326 325 324 324 323 322 320 319 318 317 316 316 316 315 315 315 316
326 326 326 326 326 327 328 329 329 328 327 327 328 328 328 329 329 328 328 328 327 327 327 327 326 324 323 322 321 320 319 317 316 314 314 314 314 314 314 313 312 311
325 326 326 326 326 326 327 328 328 328 328 327 327 328 329 329 328 327 327 322 327 326 326 326 325 323 322 322 320 319 318 317 317 314 314 314 314 314 313 312 309 308
324 325 325 326 326 326 327 327 326 327 326 327 327 327 326 326 326 326 326 326 326 325 324 324 324 323 322 321 319 317 317 315 314 313 313 311 310 312 312 310 308 307
324 325 325 325 325 325 325 325 325 326 326 325 325 325 325 325 325 325 324 323 323 323 322 322 322 321 320 318 317 316 313 312 310 311 311 309 305 308 307 306 305 305
323 323 324 324 324 324 324 324 324 324 324 324 324 324 324 323 324 324 323 322 322 321 321 320 320 319 318 317 314 313 312 312 309 310 309 308 306 305 304 304 304 302
322 322 323 323 323 323 323 323 323 323 323 323 323 323 323 323 322 322 321 321 320 320 319 318 318 318 314 313 312 312 311 311 308 309 308 306 305 304 304 304 303 302
320 321 321 322 322 322 322 322 323 323 322 321 320 319 318 319 319 318 318 318 318 318 318 316 316 315 312 312 312 311 310 308 308 308 307 305 304 303 302 303 303 301
318 319 319 320 320 320 320 320 320 320 318 317 317 315 313 313 315 316 316 316 316 315 315 314 312 312 311 311 313 311 310 308 307 307 306 304 304 302 302 302 300 298
316 316 316 316 317 317 317 317 316 315 313 314 314 313 313 312 311 313 314 314 314 314 313 312 312 311 311 311 311 311 310 308 306 306 306 305 304 303 298 301 300 298
312 313 313 313 314 314 314 314 313 312 311 311 312 313 311 310 310 310 310 311 312 313 312 311 311 310 310 310 310 309 309 307 306 306 305 305 304 303 301 301 299 297
308 309 310 311 311 311 310 310 309 309 309 309 309 310 309 308 308 308 307 309 310 310 310 310 309 309 309 309 308 307 306 305 304 305 305 304 303 301 301 300 299 297
307 308 308 308 309 309 309 309 308 307 308 308 307 307 307 307 307 306 305 306 308 308 308 308 307 306 306 306 306 305 304 304 304 303 301 300 299 298 299 299 298 297
306 306 306 306 306 306 306 306 306 306 305 305 304 305 305 306 306 306 304 303 302 304 304 304 304 304 305 304 304 304 304 303 302 300 299 298 297 296 297 298 297 297
305 305 305 305 305 305 305 305 304 304 303 302 302 302 302 302 302 302 302 302 301 299 300 301 302 303 297 297 299 303 303 302 300 298 297 296 294 293 294 294 295 294
304 304 304 303 304 304 303 302 302 300 299 298 297 297 297 296 297 299 298 298 298 298 297 299 300 300 294 297 298 298 301 300 298 296 295 294 294 292 289 290 292 293
303 302 301 301 300 301 299 297 297 295 295 295 295 294 294 294 294 296 296 296 297 296 296 296 297 294 295 297 297 297 296 297 297 295 294 293 293 293 292 291 290 289
300 298 298 298 297 297 296 295 295 295 294 294 294 294 293 294 295 294 294 294 295 295 295 294 295 293 295 296 296 296 296 295 295 294 293 292 293 293 292 290 288 287
297 297 296 296 295 294 294 294 294 294 293 293 293 292 293 293 293 293 293 293 294 294 294 294 294 292 294 295 295 295 295 295 295 294 294 293 293 293 292 289 288 288
296 296 295 294 293 293 292 293 293 292 292 292 292 292 293 292 292 292 292 292 292 293 293 293 294 292 294 294 295 295 295 294 294 294 293 293 293 293 292 291 291 290
295 295 295 294 293 292 292 292 293 292 291 291 291 292 293 292 291 292 291 291 292 292 293 293 293 292 293 294 294 295 294 294 294 293 292 291 291 292 292 293 292 290
295 295 294 293 293 292 291 291 291 290 291 291 291 291 291 291 292 292 291 291 290 291 292 293 292 291 293 293 293 294 293 292 292 291 290 290 291 292 292 291 290 290
294 294 294 293 291 291 291 291 292 292 290 290 292 290 290 291 292 290 290 290 290 290 292 292 291 290 291 292 293 293 292 291 290 289 289 289 290 291 290 289 288 287
294 294 293 292 291 291 291 290 290 291 291 289 292 292 291 291 289 289 289 289 289 290 288 291 290 290 291 292 293 292 290 291 290 289 288 289 289 287 287 288 288 287
293 291 291 290 290 290 290 290 291 290 289 289 290 291 291 290 290 291 288 289 288 289 289 290 290 290 290 292 292 291 291 290 290 290 289 287 286 285 285 286 288 288